GFSGL_sfc_temp_000.txt.gz
Temp
57 58 58 59 59 59 58 58 59 60 61 60 60 60 60 60 60 59 59 61 61 60 61 62 60 60 60 58 60 58 58 59 58 57 58 59 59 61 61 62 62 62 62
57 58 58 59 59 59 59 58 59 59 60 60 62 60 60 59 60 61 60 61 60 60 60 60 59 60 58 58 60 59 59 59 61 56 55 56 56 55 57 58 61 63 63
58 58 57 57 58 58 58 58 59 59 59 60 60 60 59 59 58 58 59 58 58 58 59 60 59 59 57 59 59 59 59 60 60 59 54 53 54 55 55 55 56 57 62
59 58 57 56 57 57 58 59 59 59 58 58 58 59 59 58 58 57 57 56 55 56 56 57 58 59 59 58 59 58 58 59 57 56 54 53 54 52 55 56 55 55 56
59 58 57 56 57 57 57 57 58 58 58 58 58 57 57 57 59 56 56 55 55 54 54 55 56 57 57 57 58 57 57 57 56 56 54 53 53 54 55 54 54 53 53
59 58 58 57 57 56 56 56 56 56 56 57 57 57 56 57 48 50 53 54 54 55 54 53 54 54 53 50 52 51 53 56 54 55 53 54 52 53 52 53 52 52 52
59 60 59 57 57 56 56 55 54 54 54 55 55 55 55 53 47 47 49 53 53 52 52 52 54 54 53 54 50 50 50 49 52 55 54 54 53 52 51 49 49 51 53
59 60 60 59 58 56 55 54 52 52 53 53 53 54 54 54 46 45 48 51 50 50 51 51 52 52 52 53 53 53 53 52 53 56 56 56 55 53 53 53 51 50 49
60 61 61 60 57 55 55 53 51 51 51 51 53 52 53 53 44 44 49 51 51 51 51 51 51 51 46 45 53 52 51 50 47 44 45 45 44 43 48 51 50 51 51
62 63 62 60 58 56 54 52 52 52 53 53 53 52 51 54 43 43 49 53 52 52 52 51 47 50 43 43 52 52 53 53 51 50 50 47 45 46 45 52 51 52 50
65 64 62 60 58 57 54 53 53 53 53 52 53 52 52 51 50 43 44 54 56 54 54 54 53 43 42 42 46 51 52 50 48 50 50 50 49 49 50 50 50 53 51
66 64 63 59 62 59 54 53 54 53 52 51 52 52 52 52 47 44 43 45 49 55 55 55 53 44 42 41 44 43 42 45 51 50 49 49 49 50 50 49 49 50 52
65 63 62 61 61 58 55 53 54 53 53 54 53 54 55 55 53 45 44 42 43 53 55 50 45 44 42 42 41 41 40 49 49 48 49 50 51 52 49 48 49 49 49
64 63 63 62 60 58 60 58 57 55 54 56 55 56 57 56 55 54 53 50 44 48 48 51 48 46 43 46 46 46 48 49 49 49 50 52 51 50 50 50 51 50 48
65 65 64 64 61 61 61 60 60 59 59 60 59 61 59 58 60 55 53 54 52 50 47 48 48 48 50 50 48 48 48 46 47 49 48 50 51 52 51 51 50 51 49
66 66 65 65 62 64 62 61 50 50 49 48 46 57 62 53 50 46 46 45 43 41 49 49 48 48 50 50 49 50 47 45 48 49 50 50 50 51 51 50 51 50 49
66 67 68 65 66 64 63 63 62 60 47 44 45 45 45 52 43 43 43 43 39 43 51 49 50 50 50 50 50 48 46 49 50 48 48 47 46 47 45 48 50 48 46
65 57 69 68 68 66 66 65 66 66 64 64 46 45 42 42 43 42 40 42 46 46 51 53 53 52 52 50 48 48 49 48 47 46 44 45 45 45 45 45 46 46 47
68 64 68 68 70 67 68 68 68 67 67 67 52 45 41 39 40 39 41 55 54 51 50 50 49 51 51 51 50 49 47 46 46 44 44 43 44 44 44 46 47 41 42
69 60 60 63 67 67 67 67 66 65 63 58 55 51 48 48 50 48 52 53 52 52 52 52 51 50 49 49 48 47 47 45 46 44 44 44 45 45 46 46 47 46 45
70 67 56 67 62 65 65 65 61 58 53 50 48 44 38 51 50 49 48 49 49 49 49 49 50 50 48 48 47 45 45 45 45 45 45 46 46 45 45 45 46 45 45
63 58 61 60 58 57 56 55 53 51 50 49 48 46 38 51 50 49 47 44 43 42 42 44 46 47 47 46 46 46 46 46 45 45 45 45 45 44 44 43 43 43 43
58 57 56 54 53 48 52 52 52 51 50 50 49 48 48 47 47 46 44 42 42 42 42 44 46 46 46 46 46 46 45 43 42 43 43 43 44 44 44 42 41 39 39
58 56 55 55 55 54 52 50 49 46 50 48 48 47 46 45 44 43 45 45 46 45 46 46 45 46 46 45 45 44 43 41 43 44 44 45 45 43 44 43 42 39 37
58 55 55 54 54 52 51 50 49 48 47 46 45 45 47 46 46 45 45 45 45 45 44 44 45 44 44 43 42 41 36 34 40 36 45 45 44 43 43 42 38 37 37
58 57 54 53 52 51 49 48 47 47 47 46 46 45 45 45 46 46 45 44 44 44 44 43 43 43 43 42 40 34 33 33 35 33 43 44 43 43 43 39 37 37 36

GFSGL_sfc_temp_003.txt.gz
Temp
71 71 70 70 70 70 69 70 70 70 69 67 66 63 63 65 63 63 65 68 69 69 71 70 69 69 73 72 73 74 73 74 68 67 72 70 69 72 72 74 72 75 70
72 71 70 70 70 70 69 70 71 71 72 71 70 69 67 65 64 62 66 69 70 70 69 70 71 72 69 70 74 70 72 73 72 65 68 69 69 67 68 68 70 73 72
72 71 69 69 70 69 69 68 70 72 71 71 72 71 70 69 66 68 69 69 70 71 71 71 70 71 69 70 71 71 72 73 73 70 67 68 67 67 65 65 66 67 72
73 71 69 69 69 70 69 70 71 72 72 72 71 71 70 71 71 70 68 66 66 69 70 71 71 72 70 69 71 70 69 70 69 69 68 67 68 64 68 66 64 67 67
72 71 70 69 69 69 70 70 69 70 72 72 71 71 71 72 73 71 70 70 68 67 67 68 66 63 58 63 72 70 68 70 71 70 69 68 67 65 65 67 67 66 63
72 72 71 69 69 68 68 68 69 69 70 71 71 72 70 72 48 52 66 70 70 69 67 66 66 61 56 52 53 56 65 69 68 71 71 69 67 67 68 66 66 62 61
72 72 71 70 69 69 69 68 67 67 67 69 69 70 69 67 48 48 54 70 70 69 68 68 69 67 65 67 51 51 52 52 56 69 68 67 67 66 66 63 63 64 65
72 72 72 71 71 70 69 68 66 66 67 67 68 69 68 66 47 47 51 67 67 66 67 67 68 67 64 67 69 67 67 67 66 69 68 70 68 69 65 67 65 63 64
73 73 73 72 71 69 69 66 65 65 65 65 68 67 67 67 45 45 57 66 65 64 65 65 66 66 47 46 68 67 66 65 50 46 45 45 45 47 57 65 63 63 63
75 74 74 74 71 69 69 66 65 66 67 70 67 67 60 68 43 44 56 70 65 67 64 64 49 61 44 46 67 67 66 67 65 64 64 56 50 54 46 62 69 64 65
78 76 74 72 70 70 68 66 65 66 67 65 67 66 66 65 63 43 44 68 71 69 70 67 67 45 43 43 48 64 63 65 58 63 64 64 62 62 62 60 63 65 65
78 76 74 71 72 71 67 66 67 66 65 65 65 66 69 67 51 45 43 45 55 69 70 71 67 43 42 42 46 50 44 47 66 65 65 65 65 65 65 64 61 62 65
76 74 73 72 72 70 68 66 67 66 69 69 69 70 71 71 68 46 43 42 43 61 70 61 51 43 42 43 41 43 39 60 65 64 64 65 66 66 63 61 60 60 60
74 73 73 71 70 70 72 71 71 69 70 72 72 72 73 73 72 71 64 59 46 52 49 61 55 52 49 51 55 53 61 65 63 64 63 63 63 62 62 63 62 62 60
74 74 73 74 69 70 71 72 72 72 71 73 73 75 74 73 75 65 65 70 69 63 62 66 66 65 65 65 66 65 64 63 61 61 59 59 60 61 61 62 58 54 56
72 74 75 76 73 75 73 72 52 51 48 48 47 64 75 56 48 47 46 47 46 42 62 69 67 65 62 67 67 67 66 58 61 59 60 61 61 57 56 60 59 56 56
72 74 76 73 75 75 74 74 73 63 46 44 44 46 45 42 45 45 45 41 39 44 64 55 56 59 60 62 63 64 63 63 60 58 58 54 55 59 55 58 57 58 57
74 60 77 76 78 77 76 75 77 76 75 74 44 46 43 43 46 42 40 46 53 55 64 63 63 63 64 63 63 63 61 59 56 53 56 58 58 57 57 57 58 56 56
76 77 77 78 79 75 78 77 78 78 78 79 65 53 45 39 38 39 41 65 66 64 62 59 56 58 59 54 58 60 52 53 55 55 56 57 58 57 57 58 58 43 45
76 64 67 78 78 77 78 78 78 78 77 78 75 65 58 56 59 59 60 60 54 54 56 51 52 58 54 54 48 53 57 54 55 57 56 56 57 57 57 56 55 52 52
77 76 61 76 74 77 78 77 78 78 76 69 64 57 42 63 59 58 58 58 56 58 56 56 58 51 45 43 47 49 50 52 54 55 55 54 54 54 52 50 50 52 52
76 76 73 75 74 75 76 76 74 70 67 62 58 53 40 62 60 60 57 52 51 52 47 47 46 45 45 47 51 51 52 51 49 51 52 53 52 50 50 51 51 49 48
78 74 72 75 73 58 68 69 67 65 63 61 60 60 60 57 56 52 52 48 44 44 49 48 49 49 51 51 51 51 49 49 49 50 51 51 51 51 52 48 46 44 42
72 71 70 66 65 65 63 63 62 55 60 59 57 56 54 52 50 48 44 46 47 49 52 55 53 51 49 49 49 50 51 52 52 52 52 52 52 50 52 50 48 44 42
66 64 62 60 60 59 58 58 58 58 56 53 51 48 50 46 46 47 48 50 51 49 47 48 48 47 48 50 50 50 37 33 44 37 54 53 52 51 51 49 47 44 42
62 61 59 60 59 59 57 54 53 50 48 48 46 46 45 47 50 51 51 51 49 48 49 50 49 51 51 50 47 36 33 33 39 34 51 54 53 52 51 48 47 45 40

GFSGL_sfc_temp_006.txt.gz
Temp
78 77 76 77 77 77 77 77 75 71 74 69 63 63 64 69 71 71 70 66 65 65 66 65 62 64 61 60 66 66 77 78 72 74 76 74 73 76 75 78 74 77 73
79 78 76 77 77 76 77 77 77 75 74 74 68 64 63 63 67 69 71 70 71 67 67 68 65 70 67 71 75 73 78 78 76 69 73 73 73 75 75 75 78 82 80
80 78 76 75 76 75 75 74 78 74 77 77 72 68 66 64 66 69 68 71 73 74 74 73 70 74 73 77 78 76 77 79 78 76 73 77 75 75 73 73 73 75 78
80 78 76 75 76 76 77 77 78 79 77 77 77 76 74 73 73 76 76 75 75 76 76 77 77 76 75 75 76 76 77 77 77 76 75 74 73 72 75 72 69 72 73
80 78 75 75 76 77 77 77 78 78 79 80 78 78 78 77 78 75 75 75 74 74 75 77 76 67 60 65 78 76 74 77 77 76 75 74 73 71 70 74 73 73 72
79 78 78 77 77 76 76 76 76 77 78 79 78 78 77 77 50 56 70 75 75 74 72 72 70 64 59 53 55 55 69 75 74 77 75 73 72 73 74 74 73 71 68
79 79 78 77 77 76 77 77 76 75 75 76 77 77 75 71 49 52 59 77 75 74 74 75 77 73 70 73 53 54 54 55 57 74 73 74 74 74 74 70 71 71 70
80 80 79 78 78 77 76 75 74 74 74 75 75 76 76 69 48 50 57 76 75 75 75 75 76 74 70 74 75 75 75 74 70 75 74 75 75 76 73 73 71 71 72
81 80 80 80 78 77 76 74 74 73 73 74 76 75 75 71 47 48 58 75 75 74 75 75 75 75 49 50 76 75 75 74 51 50 50 47 46 47 55 74 71 70 69
83 82 82 82 78 76 75 73 73 74 74 78 75 75 65 74 45 46 56 80 73 75 73 72 53 66 45 47 74 75 73 75 75 74 71 58 51 59 47 63 73 70 71
86 85 83 80 78 77 75 74 73 73 76 74 74 74 75 72 64 44 46 78 78 77 77 75 76 48 44 44 46 73 69 71 65 70 73 73 73 71 71 68 68 69 70
86 84 82 79 80 78 74 73 73 73 72 71 72 73 76 75 55 44 44 46 56 78 78 80 74 45 43 43 49 51 46 51 73 74 74 73 74 74 74 73 69 68 69
84 82 81 80 79 78 74 73 74 72 75 75 76 77 78 78 77 47 43 43 45 69 79 61 48 44 43 44 42 43 40 67 71 71 72 73 74 73 68 67 68 67 66
82 81 80 78 77 78 79 78 78 76 77 79 79 79 80 80 80 77 69 62 46 57 58 68 61 55 53 55 59 57 66 70 71 71 71 72 71 70 69 69 69 67 59
81 80 79 80 76 77 78 80 80 79 77 80 81 83 80 80 81 71 71 77 75 68 69 74 70 69 70 72 74 74 75 73 70 71 69 69 70 70 70 69 63 62 64
80 81 81 82 79 80 79 79 56 55 53 51 50 67 82 57 49 50 53 52 49 46 69 76 76 76 76 77 77 77 76 63 71 68 68 67 66 64 62 65 66 64 63
80 81 84 79 83 82 81 80 77 65 47 45 45 47 46 55 45 47 45 42 41 47 73 76 75 74 74 74 75 73 70 66 66 68 65 64 60 62 63 65 65 64 64
81 64 84 84 85 84 83 82 83 82 76 75 47 48 43 44 43 41 41 45 60 60 75 74 74 73 71 68 68 66 67 65 60 58 59 57 58 60 61 62 62 62 60
83 84 85 86 87 82 86 84 85 85 84 84 69 55 46 40 40 40 41 72 77 75 74 70 69 68 65 64 58 60 57 53 55 54 53 55 58 58 58 59 58 45 48
83 67 72 86 85 85 86 85 85 84 84 85 81 79 66 61 68 68 71 74 72 67 66 64 61 60 63 60 52 49 45 44 46 55 57 56 56 57 56 55 56 55 53
85 83 66 82 85 84 85 85 85 85 84 84 85 73 52 77 72 71 69 69 68 66 68 63 63 60 55 46 51 55 58 58 57 54 55 54 55 54 52 53 53 53 52
85 84 81 81 83 82 82 84 85 85 85 84 73 64 41 76 72 69 69 65 61 63 61 59 55 53 52 54 59 60 59 56 54 55 55 55 54 54 55 54 54 52 50
83 82 82 78 77 65 71 80 83 84 81 74 70 69 73 71 68 65 62 62 58 53 54 57 58 57 57 57 55 56 54 55 55 55 55 55 56 55 56 53 55 53 51
86 83 82 79 79 80 77 77 81 66 74 71 71 71 69 66 64 61 60 60 57 54 53 53 55 55 54 55 55 56 58 58 58 58 57 58 58 55 56 54 54 52 46
86 81 80 79 77 76 75 74 74 73 71 70 67 66 65 62 61 57 56 50 48 51 55 56 55 55 56 56 56 54 37 34 48 37 60 59 57 57 57 55 53 51 50
76 74 76 74 71 71 67 66 68 68 65 63 63 58 57 53 49 49 51 55 53 54 56 56 56 55 54 53 50 36 33 33 41 33 51 59 58 58 57 53 53 52 50

GFSGL_sfc_temp_009.txt.gz
Temp
79 79 78 79 78 78 77 76 72 72 69 73 74 74 71 68 70 70 68 69 67 65 63 62 60 60 59 59 59 61 65 65 64 66 75 74 72 72 71 73 70 72 69
80 79 78 79 78 77 77 76 75 74 69 66 71 73 72 73 68 71 71 69 66 65 63 62 61 62 61 60 61 64 68 70 70 67 71 70 70 73 72 74 76 80 78
82 79 77 77 77 76 75 76 77 77 74 70 70 67 69 73 73 72 66 70 68 67 65 62 63 62 61 63 66 67 76 75 72 72 70 73 74 75 73 75 75 76 80
82 80 76 77 77 77 78 78 78 79 77 76 73 69 67 74 75 75 75 72 70 67 68 70 69 66 67 70 71 69 77 76 75 74 74 73 74 74 74 72 70 73 74
82 80 76 77 78 78 78 79 79 79 79 79 76 75 77 78 72 74 75 74 72 72 72 72 72 69 63 65 77 75 75 76 76 75 74 74 72 71 70 74 72 74 72
81 80 79 78 79 77 77 78 78 79 79 79 79 77 73 73 52 60 72 76 76 73 71 71 70 66 60 54 56 58 69 76 75 76 76 73 72 73 74 74 74 72 69
81 81 80 79 78 77 78 78 77 76 77 78 77 76 73 71 52 54 61 76 76 75 74 74 77 75 72 74 56 56 56 57 61 76 75 75 74 74 75 72 71 72 71
82 82 81 81 79 79 78 77 75 75 76 76 77 76 74 68 52 56 60 77 76 76 76 78 74 75 71 74 76 75 75 74 71 77 76 75 75 75 76 74 72 72 73
83 83 83 82 79 78 77 75 75 75 75 76 77 77 75 70 50 51 59 77 75 75 77 77 77 76 53 54 77 75 75 74 54 53 51 48 48 49 53 71 72 70 69
85 85 84 84 80 78 77 75 75 75 75 79 77 77 67 74 48 48 57 81 75 76 75 72 53 68 50 49 76 75 74 75 76 73 72 64 55 63 49 62 69 68 70
88 87 85 83 80 79 77 76 75 75 77 76 76 76 76 74 64 47 49 74 79 78 78 76 74 48 47 47 46 73 67 64 69 73 74 75 75 74 73 69 68 68 66
89 87 85 82 82 80 76 75 75 74 74 73 74 74 77 76 59 46 46 45 52 79 79 80 70 46 46 45 52 48 49 54 73 74 75 75 75 76 76 75 72 71 69
87 85 83 81 81 79 76 74 75 74 76 74 75 76 77 77 73 50 46 45 48 71 76 54 47 44 44 46 43 45 42 70 71 71 72 74 76 75 71 71 71 69 61
85 84 83 80 79 79 79 78 77 76 77 78 78 78 80 79 78 72 69 64 47 61 59 65 62 58 57 57 60 57 68 70 70 71 70 72 74 72 68 65 64 64 63
85 84 83 82 78 79 79 80 80 79 78 80 81 82 81 80 80 70 69 73 73 68 71 76 72 72 72 72 71 74 76 74 72 70 68 67 65 65 64 65 67 65 60
83 84 84 83 81 81 80 80 58 58 56 50 48 65 82 62 51 51 52 52 52 50 70 76 76 77 77 78 78 76 68 63 66 70 68 67 65 65 59 57 58 58 59
82 83 85 79 83 82 81 81 78 64 47 48 45 48 52 52 48 48 45 43 45 50 74 77 78 79 78 78 76 72 66 67 67 65 61 59 55 53 52 57 58 60 59
84 64 85 85 86 84 84 83 83 80 76 76 49 55 47 46 45 43 42 50 65 60 76 78 77 76 74 71 71 68 66 62 62 57 52 50 52 56 57 59 60 58 56
86 87 86 88 88 83 86 85 85 84 82 80 79 53 48 41 40 40 43 75 77 77 77 78 76 72 70 68 66 65 60 59 54 54 57 59 62 61 59 58 58 45 47
88 70 74 87 88 87 88 86 86 85 85 84 82 77 66 58 64 65 66 71 76 80 77 73 71 69 67 66 63 60 56 53 58 62 61 59 59 59 57 56 56 54 54
89 87 66 85 87 88 88 87 87 86 86 86 84 77 54 73 72 71 72 77 76 74 70 68 69 65 63 60 59 58 59 60 60 58 59 58 58 55 56 56 56 55 55
90 89 85 85 87 88 88 88 86 81 85 86 82 65 45 79 80 77 76 73 73 71 70 66 63 63 61 59 60 59 58 58 57 57 59 59 58 56 57 56 56 55 54
90 88 87 84 84 71 80 86 82 81 81 81 73 72 73 80 76 74 70 69 66 64 63 63 63 62 62 56 58 59 59 58 57 58 58 58 59 57 57 54 55 54 53
89 87 86 84 79 79 79 77 75 63 77 80 75 75 78 75 71 67 65 64 64 64 64 62 59 56 56 57 57 58 59 56 59 60 59 59 58 55 58 57 55 54 52
89 86 85 84 80 77 78 79 75 81 81 76 73 74 73 70 67 64 63 63 59 54 54 54 55 56 56 57 55 53 38 34 47 37 57 59 59 59 59 56 54 53 52
88 86 85 85 82 81 81 79 78 78 72 73 71 69 66 65 63 59 57 55 54 52 52 55 55 56 56 54 49 36 33 34 40 33 49 59 59 58 56 53 54 52 52

GFSGL_sfc_temp_012.txt.gz
Temp
76 76 76 74 75 72 69 69 67 66 68 68 66 66 68 68 67 67 66 66 65 64 63 61 60 61 60 60 61 61 61 60 60 61 65 66 66 66 67 67 65 63 61
77 75 76 74 74 71 69 70 68 64 69 69 70 68 68 66 67 66 67 66 64 63 62 61 60 61 59 59 61 61 63 63 65 62 64 65 64 64 64 63 67 71 65
78 75 75 73 71 71 69 71 71 67 68 70 69 70 69 68 67 67 66 65 64 63 62 60 60 60 59 59 60 61 63 67 66 65 62 63 63 62 62 64 64 64 70
78 75 73 72 72 73 71 73 71 71 68 67 69 71 71 70 70 67 67 65 65 63 62 62 61 61 61 61 62 63 65 66 64 64 63 62 62 63 62 61 61 63 62
78 75 72 73 74 75 73 73 73 72 71 68 67 71 70 70 70 68 67 64 63 63 63 63 62 63 62 62 64 64 66 65 65 63 61 61 61 60 60 62 60 61 62
77 75 75 74 75 74 74 74 72 72 71 70 70 71 68 67 51 56 66 67 66 65 65 64 62 59 57 57 59 59 63 64 63 63 62 60 60 61 62 61 61 59 57
78 77 76 75 75 74 74 74 73 71 71 69 67 66 65 62 52 54 60 68 66 65 65 65 66 68 63 64 55 56 56 56 59 67 63 63 63 64 63 61 61 60 60
78 78 78 76 75 74 73 72 71 71 70 68 68 67 65 61 53 54 61 69 68 68 68 66 64 66 64 66 67 67 67 67 65 69 66 63 61 60 62 65 63 62 63
79 79 79 78 74 73 72 69 70 70 70 70 69 67 65 64 54 54 64 69 68 68 67 66 68 65 53 53 68 66 65 62 54 51 50 50 50 50 52 60 59 58 57
81 81 80 79 76 73 71 69 70 71 71 73 71 69 64 64 49 50 57 69 67 67 65 61 53 60 50 52 65 65 63 64 64 60 59 54 52 56 52 58 57 54 53
84 84 81 77 74 73 71 70 70 70 71 71 70 70 69 65 59 50 50 65 67 66 65 63 59 48 47 49 51 61 56 57 62 64 63 63 62 61 58 57 58 57 54
85 84 80 75 78 76 70 70 70 69 69 68 68 68 69 67 58 46 47 49 49 66 66 65 56 45 47 49 52 48 51 56 62 62 62 62 63 61 60 60 60 60 60
83 80 78 76 76 74 71 69 70 68 69 68 69 68 68 69 63 51 46 48 49 61 62 57 46 45 46 47 45 48 50 60 60 60 61 62 62 62 59 60 59 60 60
80 78 77 74 73 73 74 72 71 69 69 70 70 69 69 69 67 62 60 56 49 58 51 55 53 54 55 55 53 50 59 61 61 61 61 61 59 58 57 58 57 57 55
79 78 76 76 72 72 73 73 72 71 70 71 71 72 69 69 69 61 62 64 64 63 64 61 61 61 61 61 62 63 63 62 62 61 60 59 59 58 55 55 55 54 52
78 79 78 77 74 75 73 73 51 57 51 50 51 64 74 65 51 52 51 52 52 51 61 64 64 65 65 66 65 64 63 60 62 61 58 56 55 54 52 53 53 51 50
77 78 79 76 76 76 74 74 71 59 46 45 51 50 58 57 50 50 50 49 47 48 65 65 67 68 69 69 64 63 60 60 58 57 54 52 51 52 51 52 54 53 51
79 63 80 79 79 77 77 75 77 73 69 65 48 55 46 44 45 45 44 50 59 56 67 67 69 68 68 66 63 60 59 57 55 53 51 51 51 53 53 52 52 49 48
81 82 81 81 81 76 79 78 78 77 75 73 61 53 43 41 41 42 45 68 67 67 67 69 69 67 64 62 60 59 57 54 52 51 52 53 53 52 51 51 50 42 44
82 68 72 81 80 80 80 80 78 77 76 75 73 66 59 56 61 61 61 66 68 71 72 69 66 64 63 59 56 56 52 51 51 53 53 52 53 52 50 50 50 48 47
86 81 67 81 82 81 82 80 80 79 79 77 75 71 51 64 64 64 64 65 67 69 70 67 66 63 60 58 56 54 53 53 52 52 53 52 52 50 51 50 49 49 47
87 85 80 81 81 80 80 81 80 81 80 80 78 65 45 68 70 68 69 67 70 67 66 64 62 60 59 58 57 56 54 51 52 53 53 52 51 50 50 49 48 47 46
87 86 82 80 80 68 73 75 79 80 80 80 71 60 61 66 71 70 68 66 64 62 62 61 59 59 59 57 56 55 53 51 51 52 51 51 51 50 50 45 48 46 45
87 85 84 81 78 79 78 77 78 63 72 68 66 64 64 67 67 63 62 61 60 60 60 59 58 55 53 53 52 51 49 50 53 53 53 52 51 48 50 49 47 48 42
87 83 82 79 77 76 74 69 68 70 69 69 67 66 63 62 62 61 60 59 59 56 54 54 54 52 51 50 48 45 37 36 43 39 51 53 53 53 50 46 46 42 42
84 82 82 80 77 74 74 73 73 67 69 70 69 69 65 62 60 59 57 54 53 53 52 52 52 51 49 48 45 36 34 34 36 34 45 50 52 49 48 46 48 43 43

GFSGL_sfc_temp_015.txt.gz
Temp
65 65 64 65 65 64 62 64 61 62 63 64 64 63 63 64 64 63 62 62 62 61 61 61 61 62 61 61 62 62 60 61 58 59 62 62 62 63 64 64 65 62 61
66 66 64 65 64 64 62 63 63 62 63 64 65 64 64 63 62 62 62 62 61 60 60 61 60 61 61 61 61 60 60 60 60 58 60 61 61 62 62 61 64 66 60
66 65 63 63 64 63 62 62 64 62 62 64 64 64 64 64 63 63 63 62 61 61 60 60 60 60 60 61 60 60 60 62 61 60 58 60 60 59 58 59 58 58 64
66 64 62 62 64 63 64 62 64 64 63 63 63 65 66 65 65 64 64 62 62 61 61 61 61 61 60 60 61 59 61 61 63 60 58 58 58 57 56 55 57 57 58
65 64 63 63 64 65 65 65 64 65 64 65 64 63 64 65 66 64 64 62 61 61 61 61 61 61 60 60 61 60 60 61 60 57 55 55 54 55 55 55 56 56 57
65 64 65 65 66 64 64 64 63 63 63 64 63 62 60 62 52 56 61 62 62 61 60 61 60 60 58 58 58 57 61 60 56 56 55 55 55 56 56 57 56 54 53
66 67 66 66 66 65 66 64 62 61 60 60 60 60 57 55 51 53 57 64 62 61 60 60 63 64 60 61 54 54 55 56 60 60 57 57 56 57 57 55 55 55 54
67 68 68 66 66 66 64 62 61 60 59 58 59 59 58 56 50 52 55 62 60 61 61 61 61 59 59 60 60 61 61 59 60 64 60 58 58 57 59 59 58 57 57
67 68 69 67 65 64 62 61 61 60 58 58 59 58 58 56 52 53 60 60 60 60 61 60 61 59 52 54 62 60 58 56 51 49 49 48 48 51 55 57 55 53 51
69 71 71 68 65 63 61 60 61 61 61 61 60 59 57 58 50 51 59 62 57 58 57 57 54 56 49 54 59 59 58 57 58 56 55 51 50 52 51 55 53 51 49
72 73 70 66 65 62 61 61 61 61 61 60 60 58 59 58 55 49 53 61 60 58 58 56 54 47 49 49 53 58 56 55 55 57 56 55 55 54 52 53 53 53 49
72 72 70 65 71 67 63 60 61 60 59 59 58 57 58 57 54 47 47 51 51 59 58 56 51 44 46 46 49 47 49 53 56 56 55 53 53 53 53 54 54 54 55
70 68 68 68 67 65 64 60 59 59 58 57 58 57 56 57 54 46 45 49 49 57 58 54 46 44 45 45 45 50 51 53 53 53 52 51 51 51 52 53 53 54 57
68 66 68 67 63 65 66 64 63 58 57 59 58 57 56 55 54 49 49 50 49 49 48 48 47 48 49 48 49 49 53 53 54 54 51 51 50 50 50 50 49 49 52
67 68 69 68 65 64 65 65 64 60 60 58 58 59 56 57 57 53 52 53 53 54 51 50 49 49 50 51 51 52 53 54 54 52 52 50 49 50 49 49 49 46 44
67 69 68 68 64 66 64 60 47 50 51 51 51 58 61 58 49 48 48 49 48 47 54 52 51 51 52 53 54 54 54 52 51 52 49 50 49 48 48 47 46 44 43
71 69 69 67 66 65 64 63 60 51 45 45 49 50 53 55 48 47 48 47 47 48 55 54 54 55 56 56 55 53 51 50 50 51 48 47 48 47 47 48 46 45 44
68 57 71 70 69 67 67 66 64 61 56 55 48 47 47 47 46 46 45 46 49 50 54 55 56 57 58 57 54 53 51 49 49 48 49 47 46 47 47 45 44 43 42
74 70 73 72 70 68 67 67 64 66 63 62 51 46 40 40 41 42 45 63 60 57 55 57 56 57 57 55 53 51 50 49 49 49 48 47 46 48 45 44 43 39 39
76 64 66 72 69 69 69 68 68 63 65 64 59 56 46 47 49 50 53 56 58 59 59 55 55 55 54 53 52 50 47 46 48 48 46 47 48 46 44 43 43 42 40
76 71 60 71 71 70 70 69 69 69 63 66 63 57 45 59 57 58 59 58 59 58 57 58 57 54 53 51 50 49 49 47 49 48 49 46 46 44 44 45 44 44 43
77 75 70 74 72 72 70 69 67 69 69 64 66 58 44 63 62 61 62 63 60 58 60 57 55 54 53 52 52 50 49 51 50 49 48 46 46 46 46 46 45 42 42
77 74 72 73 73 61 59 66 65 67 69 70 66 60 56 64 63 62 61 60 57 57 56 56 54 53 54 53 53 53 52 52 51 51 49 47 47 46 46 41 43 41 41
72 70 72 73 73 69 71 69 63 55 66 67 65 62 58 59 63 61 60 58 57 57 55 56 54 53 51 51 52 51 52 51 51 51 49 48 48 45 45 44 42 42 35
70 68 67 70 71 70 68 62 62 60 60 59 58 58 58 58 57 56 55 56 55 55 53 52 52 50 49 48 48 46 39 39 46 42 48 49 47 45 44 41 40 35 33
68 67 67 65 68 67 64 61 60 58 59 58 57 58 57 56 55 54 55 54 51 51 51 50 49 47 46 45 44 37 36 36 38 37 47 48 45 43 42 39 40 36 35

GFSGL_sfc_temp_021.txt.gz
Temp
59 59 60 60 60 59 59 59 59 59 60 60 59 59 59 59 60 61 60 62 61 61 60 60 59 60 60 60 60 60 60 61 58 60 62 63 63 63 62 62 63 61 61
60 59 59 60 60 58 59 59 59 59 60 60 60 60 60 59 61 61 61 58 59 60 60 60 60 61 59 59 61 60 60 61 60 59 61 61 62 62 61 60 61 64 61
60 59 59 59 59 58 59 59 60 60 60 61 60 60 60 59 60 62 62 61 60 60 61 61 61 62 60 60 61 61 61 61 61 60 59 59 59 60 59 58 58 58 61
60 59 58 58 58 59 59 60 60 61 60 60 61 61 61 61 61 61 61 60 60 60 60 61 61 62 61 60 60 60 61 60 60 59 58 57 57 57 57 57 56 54 55
60 59 59 58 59 60 60 60 60 61 61 62 62 62 62 62 61 60 61 60 59 59 60 61 61 61 59 59 61 59 60 59 58 57 56 55 54 55 55 54 54 52 54
59 60 60 60 61 60 59 59 59 59 60 61 62 63 61 61 50 54 58 60 60 60 59 60 60 58 57 55 55 56 58 58 56 56 54 54 53 54 51 52 51 52 52
59 61 61 61 61 59 59 59 57 56 58 59 60 61 59 59 49 50 54 61 60 60 60 60 61 60 59 59 54 54 53 53 55 58 56 55 53 54 53 51 51 52 53
60 61 61 62 60 59 58 57 55 55 55 55 56 59 59 56 47 48 53 61 60 60 60 60 60 60 59 60 59 58 57 56 57 60 58 57 56 55 56 56 54 53 53
61 61 61 62 59 58 57 55 54 54 55 54 55 56 56 55 46 48 57 60 60 59 60 60 61 59 49 50 58 56 54 54 49 49 47 46 45 49 53 56 53 52 48
63 63 62 61 60 58 56 55 54 54 55 57 56 56 52 54 45 47 55 59 57 58 58 58 53 56 46 47 56 54 54 54 55 53 54 50 50 48 50 53 52 49 46
66 64 61 60 59 58 56 56 54 54 54 54 54 53 54 53 50 46 49 58 57 56 56 55 55 47 44 44 50 55 55 53 52 52 50 50 50 50 49 49 50 52 47
65 64 61 58 63 60 57 56 55 54 53 52 52 52 52 52 49 46 47 50 51 56 56 55 52 45 45 44 48 47 44 49 51 50 50 49 49 48 48 51 51 50 49
64 62 60 59 59 58 57 55 55 54 53 51 52 52 52 52 50 46 46 46 48 55 55 51 43 42 42 44 43 43 46 51 50 49 47 46 47 48 49 49 48 48 47
63 61 60 60 56 56 59 58 57 55 53 54 53 52 52 51 50 48 50 49 47 50 47 45 45 45 45 46 47 48 50 50 51 48 46 45 46 47 46 47 47 44 43
64 62 60 62 59 58 60 59 59 58 59 57 56 56 53 52 52 49 49 51 50 49 44 44 45 46 47 48 47 48 48 49 48 46 45 45 46 47 45 44 43 41 40
63 62 61 61 60 60 59 54 45 48 47 47 47 54 56 53 47 45 44 44 42 43 47 46 45 45 47 47 48 47 47 48 47 47 46 48 48 46 44 42 41 40 40
66 63 62 61 61 60 59 59 56 51 45 44 43 47 48 53 43 43 43 41 40 44 50 47 48 48 49 48 48 47 47 47 47 48 48 46 46 45 45 43 43 41 38
67 54 63 63 63 62 61 61 61 59 57 54 46 45 43 43 43 43 41 42 43 45 49 52 51 52 48 50 49 48 47 45 45 45 45 45 46 46 45 43 44 42 40
66 63 66 64 63 61 62 61 60 59 59 56 48 44 40 41 41 39 41 55 52 51 50 51 54 53 52 52 51 49 48 48 47 46 44 45 46 48 45 45 44 39 37
67 57 60 64 62 61 61 60 59 58 57 57 55 57 43 44 46 43 44 52 55 56 56 55 54 52 54 53 50 50 49 45 45 47 46 47 48 48 46 45 42 40 39
68 60 54 63 62 63 62 61 61 59 59 57 58 56 43 54 55 49 47 50 56 57 57 57 55 52 53 54 52 51 49 48 49 48 48 47 48 47 46 46 44 42 40
69 63 63 64 63 63 62 63 61 61 60 59 59 54 40 55 57 54 53 53 55 58 59 58 57 57 56 53 51 50 51 50 50 49 49 49 49 47 46 45 43 41 40
68 64 64 65 64 54 55 62 62 61 61 61 60 56 47 53 58 57 56 56 55 56 54 56 57 54 54 54 54 54 53 52 51 50 50 49 48 45 44 41 42 39 38
68 66 64 65 63 61 61 61 61 53 62 61 59 59 55 54 54 58 58 57 56 56 56 58 57 58 55 52 53 53 53 52 52 50 48 46 45 43 43 42 41 40 37
67 66 64 64 64 61 60 61 58 59 60 61 59 59 58 55 54 55 54 54 56 56 54 56 56 54 52 51 50 50 41 41 48 45 48 47 45 43 42 40 39 36 35
63 64 64 63 63 61 62 60 59 58 57 59 60 59 58 56 57 56 53 52 52 52 51 50 50 50 49 48 47 41 39 39 42 41 47 46 44 41 41 39 38 36 35

GFSGL_sfc_temp_027.txt.gz
Temp
72 72 71 72 71 70 71 70 70 70 70 70 70 70 70 69 70 70 70 70 68 65 65 65 63 65 65 67 67 68 63 62 59 60 62 62 62 62 63 63 64 63 61
73 72 72 72 71 70 70 70 71 69 70 70 71 70 66 66 67 68 67 69 67 65 64 65 64 64 66 64 68 66 65 62 61 59 60 60 61 62 62 61 62 63 63
73 72 71 70 70 69 69 69 70 70 69 70 70 64 64 65 66 67 66 65 66 66 66 65 65 67 67 65 63 64 63 63 62 61 59 61 60 61 61 61 61 61 63
73 72 71 70 70 70 70 70 70 70 69 68 67 64 65 66 66 65 65 66 68 66 67 68 67 68 66 63 62 63 63 61 62 61 59 59 60 60 60 58 58 61 63
72 72 70 70 71 71 70 70 70 70 70 70 67 64 65 65 66 65 66 65 65 65 65 66 67 65 61 63 62 64 63 61 60 60 59 59 58 58 58 59 60 65 65
72 72 72 72 71 70 70 70 70 69 65 69 67 65 63 64 50 54 62 65 65 65 62 63 62 60 57 54 54 55 61 61 59 59 59 58 59 59 60 62 62 64 63
72 72 72 72 71 71 71 70 69 67 68 63 67 65 61 61 49 50 54 67 66 63 62 61 61 60 61 59 54 53 53 52 56 61 59 60 59 62 66 63 65 67 67
73 73 73 73 72 71 71 69 67 66 65 64 61 63 59 57 47 48 53 66 65 64 62 63 61 60 61 62 62 61 61 62 62 64 65 65 67 67 68 69 67 64 65
73 73 74 74 72 71 70 68 67 68 68 66 66 64 58 54 46 47 58 63 63 62 64 64 62 67 48 50 61 62 62 63 50 48 48 48 48 52 61 69 67 69 66
75 75 75 75 73 71 70 68 67 69 68 71 67 65 55 56 45 47 58 63 61 61 62 59 53 62 46 49 67 67 65 64 64 64 64 57 60 55 53 71 70 68 67
77 76 75 74 72 72 69 68 68 69 68 67 67 66 64 59 54 47 51 65 67 66 65 66 66 45 45 47 53 70 65 65 58 67 66 67 67 66 68 68 70 73 70
76 75 74 72 74 72 69 68 69 68 67 67 66 66 67 66 51 46 48 54 57 69 69 68 65 44 44 45 56 43 45 56 68 68 67 65 66 65 65 65 64 65 66
74 74 73 72 73 72 70 68 69 68 70 69 70 70 68 68 66 46 45 46 50 70 74 60 45 43 42 47 43 45 50 65 67 67 68 68 67 65 61 61 60 60 60
73 72 72 71 71 71 73 72 72 70 71 71 72 71 70 70 69 68 65 63 50 63 53 60 53 52 48 56 57 56 70 71 70 71 70 68 65 64 65 66 64 64 63
72 72 71 73 70 70 72 73 73 72 71 72 72 74 71 70 71 62 64 70 70 62 62 66 67 68 69 68 69 69 71 69 70 70 67 65 66 66 65 65 65 65 64
71 72 72 74 72 73 72 69 44 51 49 47 51 65 72 56 45 45 46 45 43 44 67 69 68 69 70 70 69 68 69 64 70 69 68 68 66 66 64 64 65 65 62
73 72 73 70 73 72 72 72 69 59 45 44 44 45 50 56 44 43 42 41 40 45 72 71 71 71 71 71 72 72 70 70 70 70 69 68 67 67 61 63 63 63 61
74 57 74 75 74 74 73 73 74 72 70 69 47 51 42 44 42 41 40 45 57 55 71 73 72 72 72 72 72 72 72 70 68 69 67 67 67 66 63 63 62 61 55
75 74 77 76 76 72 75 75 75 75 74 74 73 50 49 41 40 39 40 70 70 69 70 72 73 73 72 72 72 72 71 70 68 66 67 66 66 66 64 64 63 47 47
75 62 67 76 75 74 75 75 75 74 74 74 73 73 68 55 63 63 60 65 72 73 73 72 73 72 72 72 72 72 71 66 66 66 67 66 65 65 65 63 61 56 50
78 73 61 76 76 75 76 75 75 75 74 75 75 73 52 69 72 72 70 68 70 73 74 74 75 74 72 72 72 71 70 69 68 68 67 65 64 63 64 62 57 51 45
79 77 73 77 77 76 76 76 75 75 76 75 76 73 41 68 76 75 74 73 73 73 75 74 74 75 75 74 73 71 71 70 70 68 67 66 64 62 61 59 53 46 42
79 77 74 76 77 64 71 76 76 76 76 77 77 76 65 68 74 76 74 75 74 73 73 73 73 75 76 75 74 74 73 73 71 67 65 61 56 56 57 52 49 48 45
80 77 76 76 76 76 75 74 75 63 76 76 76 76 75 71 72 74 76 75 74 74 74 73 73 74 74 74 74 74 74 74 72 69 66 62 61 53 55 52 48 44 41
80 76 76 75 76 74 75 74 74 76 74 75 75 75 76 75 74 74 74 75 74 73 72 73 73 73 72 72 73 73 61 41 63 54 66 63 59 51 51 49 44 41 40
77 73 74 76 75 74 74 73 74 74 75 74 74 75 76 76 75 74 74 73 73 73 72 73 72 72 72 72 71 57 39 39 49 44 62 59 50 51 46 45 43 41 39

GFSGL_sfc_temp_030.txt.gz
Temp
79 79 78 78 79 78 76 77 74 74 76 77 77 75 76 75 75 73 74 75 72 72 74 74 69 72 73 72 70 69 69 67 61 61 61 62 62 62 63 63 64 63 61
80 79 78 78 79 77 75 75 74 74 77 78 78 76 76 76 75 75 75 75 73 72 67 67 69 69 68 69 71 69 66 63 61 58 60 60 61 62 63 62 62 63 63
81 79 77 75 77 74 75 74 75 74 75 78 78 74 75 75 74 75 74 73 71 68 68 69 67 67 69 70 67 65 66 63 62 60 58 60 61 61 61 61 61 61 63
81 79 77 76 75 75 75 75 75 75 75 76 74 73 73 72 71 70 71 72 69 70 71 72 72 70 70 63 66 65 65 61 61 60 59 59 60 60 61 58 58 60 62
80 79 77 76 76 77 76 75 75 74 73 73 70 69 69 69 71 69 69 69 70 71 71 72 72 67 62 62 67 66 63 61 60 59 58 58 58 58 58 59 59 61 66
79 79 78 78 76 76 75 75 74 70 72 71 67 68 67 71 51 55 65 68 68 67 66 68 70 63 59 53 54 57 62 61 60 59 59 58 58 59 59 59 59 62 63
79 80 78 78 77 76 77 75 71 71 64 70 69 68 66 68 50 51 55 70 67 68 68 65 65 65 64 64 53 53 53 52 58 62 60 61 59 61 61 61 64 67 67
80 80 79 79 78 77 77 75 73 69 65 63 63 62 62 67 49 49 52 71 68 66 66 65 66 62 61 61 62 63 61 60 62 62 62 62 63 67 65 64 68 69 69
81 80 80 81 78 77 76 74 74 70 71 69 67 61 58 61 47 47 59 69 65 63 67 64 65 62 48 51 62 62 59 57 50 50 52 53 51 53 61 72 68 70 67
82 82 82 82 79 77 75 74 75 73 73 73 67 64 55 58 44 46 58 70 65 63 69 63 52 57 47 51 65 64 67 67 68 65 62 57 60 57 53 72 72 70 72
84 84 82 81 79 78 75 75 74 75 74 72 70 67 61 58 54 47 52 64 63 64 66 65 63 45 47 50 56 67 65 69 63 72 72 72 71 71 72 75 77 78 73
85 84 82 79 80 79 75 75 75 74 72 70 69 67 64 65 54 48 49 54 56 64 67 72 64 44 45 47 56 46 48 59 74 73 72 71 72 74 74 74 72 73 74
83 81 80 79 79 78 75 74 76 75 76 75 75 72 70 71 69 47 46 47 51 72 75 56 45 43 43 49 44 47 50 77 77 75 75 74 74 72 66 65 66 65 67
81 80 80 78 77 78 79 78 79 77 78 79 79 77 75 74 73 72 71 69 53 67 55 65 57 54 48 57 55 59 77 76 73 69 68 71 70 68 72 73 70 70 68
80 80 79 80 77 77 79 80 80 79 76 80 80 80 76 76 75 67 68 75 76 69 70 71 72 74 74 74 75 76 79 77 77 78 77 74 74 74 74 74 73 71 69
79 81 81 82 79 80 79 77 45 49 54 51 54 66 77 58 49 49 49 48 46 49 72 75 75 76 76 76 77 77 78 71 78 78 77 75 75 74 73 72 73 71 70
80 80 82 77 81 80 80 79 76 62 48 46 47 48 48 52 45 44 43 42 42 48 76 77 77 77 78 79 79 79 78 78 78 77 76 75 75 75 70 71 72 72 70
81 61 83 83 83 83 81 81 81 79 74 74 49 54 44 44 42 41 41 47 65 61 77 79 79 79 79 79 80 80 80 79 77 77 77 76 75 74 72 72 71 70 69
83 84 84 84 85 80 83 82 83 82 81 80 79 52 48 41 40 39 41 75 76 75 77 79 81 80 80 81 80 81 80 79 77 76 76 75 75 75 73 73 72 53 57
84 68 73 85 85 83 84 83 83 82 81 82 81 79 74 59 67 68 66 72 77 79 80 80 81 81 81 81 81 81 80 76 76 75 76 75 75 75 74 73 72 66 63
87 84 69 86 86 84 84 83 83 83 82 82 82 80 57 74 77 77 76 75 77 80 82 82 83 83 81 81 80 80 79 79 77 76 76 76 75 73 72 73 72 64 57
88 87 82 86 86 85 84 84 84 84 84 83 84 80 43 77 81 81 81 80 80 80 83 82 83 84 84 83 81 80 80 79 79 77 76 77 75 74 73 72 70 64 60
90 88 83 85 87 72 81 85 85 84 84 85 86 85 76 79 81 83 83 83 83 82 82 82 83 83 84 84 83 82 81 81 81 80 77 77 75 73 72 68 67 61 57
91 89 86 85 86 86 84 83 85 69 84 85 85 85 85 81 81 81 84 85 84 84 83 82 82 83 83 83 83 83 83 83 83 83 79 77 75 67 70 68 65 61 56
91 88 87 85 86 84 84 84 83 86 84 84 85 85 86 86 82 82 83 84 85 83 83 83 82 81 81 81 83 83 70 45 71 65 81 76 74 71 68 66 61 57 49
88 88 86 86 85 85 84 84 83 83 85 84 84 85 86 86 86 84 83 83 83 84 83 83 82 81 81 81 81 67 44 40 56 42 74 75 72 70 67 62 57 46 42

GFSGL_sfc_temp_033.txt.gz
Temp
81 81 79 76 79 79 76 76 75 76 77 76 77 76 76 76 76 73 73 74 70 70 68 69 70 67 69 72 71 70 70 67 64 63 63 61 61 61 62 62 63 63 61
82 82 80 77 79 75 75 75 76 76 79 79 76 79 77 76 75 74 74 75 74 73 72 72 69 70 70 70 68 67 67 67 63 59 60 60 60 61 61 60 62 63 61
83 82 79 77 76 74 74 75 76 75 79 81 78 78 78 77 76 75 76 75 72 69 69 70 66 69 67 63 63 63 64 63 62 60 58 60 60 61 60 60 60 60 61
83 82 79 75 76 76 76 75 73 75 76 79 77 79 78 78 77 76 74 70 70 71 73 71 66 68 63 64 63 62 62 61 61 59 59 58 59 60 60 58 58 60 58
83 81 79 75 79 76 77 76 75 76 75 78 77 76 72 72 72 71 70 71 72 72 73 72 67 63 60 61 64 63 61 60 59 58 58 58 58 58 57 58 58 59 59
82 81 81 75 77 75 75 76 74 75 73 72 70 69 70 77 53 56 64 72 72 72 70 70 68 63 58 53 57 58 63 61 60 59 58 57 58 58 59 58 58 58 60
82 82 81 76 75 73 76 75 72 71 70 69 70 69 72 69 52 52 55 71 70 70 69 68 68 67 65 64 54 53 53 53 58 62 60 60 58 60 59 57 58 64 65
83 82 83 82 76 74 73 73 71 69 66 63 64 67 71 67 50 50 54 70 71 70 69 68 65 65 65 66 63 61 61 61 62 62 62 62 61 61 60 60 64 67 68
83 83 83 84 78 74 74 71 71 73 70 67 67 61 64 65 48 47 55 73 71 68 69 67 64 63 49 51 62 59 58 58 52 51 52 51 49 52 60 67 66 66 63
85 85 85 85 82 80 77 71 72 72 70 70 67 65 55 68 46 46 55 70 69 63 62 61 50 59 47 51 65 61 59 59 60 61 60 54 58 57 53 69 71 70 68
87 87 85 84 81 79 77 72 72 73 71 69 67 63 63 67 63 46 49 71 70 66 66 64 62 47 49 51 56 67 63 63 59 66 66 63 65 67 70 72 73 73 71
88 86 84 82 83 80 76 74 72 70 69 66 66 62 63 64 53 47 48 55 59 70 63 67 60 44 47 49 59 49 51 60 70 67 66 67 67 70 73 74 73 70 70
86 84 83 81 82 79 77 75 71 74 77 70 68 69 68 67 63 48 47 47 51 67 68 57 44 44 45 51 47 49 49 73 71 71 71 72 73 75 70 69 67 68 68
84 83 82 80 80 79 80 80 81 79 80 80 73 74 71 72 71 71 62 67 52 59 54 58 58 55 49 60 61 60 73 78 76 76 76 77 76 70 69 70 67 67 68
83 82 81 81 79 79 81 80 83 82 76 82 80 75 73 73 74 67 69 74 74 69 69 70 70 71 70 70 72 72 77 77 76 74 73 69 68 67 70 72 72 71 69
82 82 82 83 80 81 81 79 44 50 50 48 47 65 77 59 51 49 51 50 48 51 72 74 74 75 74 74 74 76 77 71 77 78 77 76 75 75 75 74 74 72 70
82 82 84 79 82 82 81 80 77 64 49 49 45 48 55 54 47 46 44 44 46 51 75 72 77 78 78 79 79 79 78 79 80 80 79 77 77 76 70 73 73 72 71
83 62 85 84 85 85 83 82 83 78 75 75 51 56 47 45 44 43 42 49 67 62 77 79 79 80 80 80 81 81 81 81 79 79 78 78 77 76 74 73 73 72 72
85 86 86 86 88 82 86 85 85 83 80 79 77 55 48 41 40 41 43 74 74 74 76 79 82 81 81 82 82 82 81 81 79 78 78 78 77 77 75 75 74 54 59
86 69 75 87 87 86 86 85 85 85 83 82 80 76 70 59 66 67 67 73 78 79 80 80 82 83 83 83 83 83 82 78 79 79 78 78 78 78 76 76 75 74 70
89 87 71 87 88 87 86 85 85 85 85 85 84 80 60 72 74 74 73 73 76 80 82 83 84 84 83 83 83 83 82 82 81 80 79 78 78 77 77 77 76 75 73
92 90 87 87 89 88 87 87 86 86 86 85 86 81 46 78 79 79 79 79 79 80 83 84 85 86 86 85 84 83 83 82 82 81 79 79 79 78 77 76 76 75 73
93 91 88 87 89 74 83 88 87 87 87 87 87 87 75 81 82 83 83 84 83 82 83 83 84 85 87 87 87 85 84 83 83 83 80 79 79 78 77 73 74 73 71
92 92 91 87 88 89 88 86 87 70 86 88 87 88 85 83 83 83 85 86 86 86 86 85 84 85 85 85 87 87 87 85 86 85 83 80 79 73 77 76 74 72 67
91 91 91 89 87 88 88 87 86 88 87 87 88 88 89 88 86 85 86 86 87 87 86 87 86 85 84 84 85 85 74 46 74 66 84 82 79 77 78 75 72 69 62
89 89 92 92 89 89 89 88 88 87 88 88 88 88 89 89 89 88 86 86 86 87 87 87 86 85 85 85 84 70 47 42 59 44 78 80 80 78 77 74 71 65 56

GFSGL_sfc_temp_036.txt.gz
Temp
77 76 72 74 73 73 72 73 72 72 72 73 73 72 72 70 70 68 67 68 67 66 65 64 63 63 65 67 65 64 63 63 60 60 62 61 61 61 62 62 63 62 61
78 78 72 73 72 72 72 72 73 73 74 72 72 71 72 72 70 69 70 69 69 65 64 62 63 64 63 64 63 63 63 63 62 58 59 59 60 61 62 61 61 62 61
80 77 72 71 72 72 72 73 73 73 71 71 72 70 71 71 71 71 71 68 66 66 65 64 64 64 62 62 62 62 62 63 62 59 58 59 59 60 60 60 60 59 60
81 78 72 72 72 71 72 73 73 74 72 70 71 72 72 71 73 71 68 67 67 68 66 64 64 64 62 61 61 60 61 61 60 59 58 58 59 60 59 58 57 59 58
80 77 72 74 73 74 72 71 72 73 72 71 70 70 71 70 70 67 69 68 68 66 64 64 63 61 60 61 61 60 60 59 59 58 57 57 57 57 57 57 56 56 56
79 77 73 75 70 72 72 71 71 71 69 69 69 69 69 69 52 56 63 68 68 66 63 63 63 60 57 56 57 57 60 60 59 58 57 57 57 57 58 56 56 54 53
79 78 75 74 73 73 72 71 68 68 67 66 67 69 66 63 52 52 55 68 66 66 65 65 65 63 62 60 53 54 54 53 57 62 58 58 57 59 58 57 57 57 58
80 80 77 76 74 73 71 69 68 68 65 64 65 68 65 62 50 49 51 67 65 65 66 65 64 64 62 62 62 60 60 60 60 61 61 60 60 60 60 61 61 62 63
81 80 79 77 73 73 70 68 68 68 66 64 65 62 64 63 47 47 54 67 64 64 65 64 63 60 50 51 60 59 59 58 52 51 51 50 48 50 58 61 61 61 58
82 82 83 78 75 70 70 68 69 68 66 63 62 63 58 63 47 46 53 66 63 62 62 59 51 56 49 51 61 60 58 59 60 59 57 52 53 53 52 62 64 60 59
84 84 83 79 76 74 70 69 69 68 67 64 64 63 66 64 58 46 48 66 63 61 62 62 58 48 50 51 54 61 59 61 57 61 61 61 61 62 63 62 64 63 62
85 83 81 77 79 76 70 70 70 68 65 62 62 61 64 65 54 49 49 56 57 64 64 62 53 46 49 52 54 47 48 56 63 62 61 60 61 62 64 65 64 64 64
82 79 77 78 76 75 71 69 70 68 67 64 63 63 63 64 62 48 48 48 55 63 65 51 43 46 46 48 47 47 50 64 64 62 62 62 64 66 65 61 61 62 62
80 77 77 76 73 74 75 73 73 71 67 67 68 66 65 65 63 62 62 59 52 56 51 55 55 53 53 55 55 55 66 67 66 64 64 66 65 63 62 62 59 59 57
78 77 76 77 74 74 75 72 75 62 69 71 71 71 67 66 66 60 62 67 66 61 61 62 62 64 63 63 65 66 65 66 66 66 64 63 64 63 62 62 60 59 57
77 78 78 78 77 76 72 69 44 48 48 47 54 67 72 59 50 51 51 51 50 49 65 65 64 65 65 65 65 66 67 65 67 66 65 65 64 63 62 62 62 61 59
77 77 78 75 77 76 76 74 68 57 45 46 47 53 59 55 50 47 47 46 47 50 69 68 68 68 68 68 68 68 68 68 68 69 68 66 66 65 59 65 65 64 62
79 62 80 80 78 79 78 77 76 71 69 67 51 55 48 46 46 45 44 51 61 58 70 71 71 71 71 71 71 71 71 71 70 69 68 68 66 67 65 65 65 62 61
80 81 81 80 82 77 80 79 79 76 75 73 63 55 45 42 42 42 44 69 68 68 69 72 73 73 73 73 72 73 72 72 71 69 68 67 67 66 65 66 65 51 53
81 68 71 81 82 80 81 80 80 77 75 75 70 68 60 55 60 62 62 68 71 72 72 72 73 73 74 74 72 72 72 67 68 70 69 68 67 68 68 67 66 64 60
84 80 67 81 82 82 82 81 81 80 78 77 75 71 52 66 67 67 66 67 70 73 74 74 76 76 74 73 74 73 73 71 70 70 71 70 69 69 68 67 65 64 62
86 84 81 82 84 84 82 82 81 81 81 80 79 70 45 69 71 71 70 69 71 72 75 75 77 77 78 77 75 74 75 74 73 71 71 71 70 69 68 67 66 63 62
88 86 83 82 82 70 75 83 82 82 82 82 82 74 65 70 72 73 73 73 72 72 73 74 75 77 79 78 78 77 77 76 74 72 72 72 71 69 68 64 64 63 61
89 88 86 83 83 84 83 81 82 67 82 82 81 77 71 73 74 74 75 76 76 75 75 75 75 77 77 76 77 78 79 77 76 75 73 71 71 61 68 66 65 64 59
90 87 87 83 82 81 83 82 81 83 82 82 82 82 75 76 77 77 78 78 78 78 77 77 77 77 77 77 78 78 68 45 69 64 72 71 70 68 69 68 64 60 53
87 87 86 87 84 82 81 82 81 81 83 82 82 82 83 78 79 79 78 78 79 80 79 80 79 78 78 78 78 66 47 42 53 45 71 70 68 68 69 65 64 57 49

GFSGL_sfc_temp_039.txt.gz
Temp
67 66 70 67 66 65 64 64 64 64 64 65 65 65 65 64 65 64 63 63 62 61 61 62 61 61 61 61 61 61 59 59 59 59 61 62 62 61 60 61 62 60 59
68 66 68 66 65 64 64 64 64 64 66 66 66 66 66 66 64 64 63 64 63 62 62 62 61 62 62 61 60 60 59 60 61 58 59 60 60 61 60 60 61 61 60
69 67 68 64 64 63 64 65 65 65 66 70 69 68 66 66 64 64 64 62 62 63 63 62 61 61 60 60 60 60 60 61 62 59 58 59 60 60 60 60 60 60 60
72 66 65 64 64 63 65 66 65 66 68 69 68 69 69 68 66 65 64 63 63 64 64 62 62 62 60 60 60 60 60 60 60 59 58 58 59 60 59 57 57 58 56
68 69 66 64 65 65 66 65 66 65 66 68 66 64 64 63 65 63 63 63 62 62 63 63 62 62 60 60 60 60 60 59 59 58 57 57 57 57 57 57 55 55 55
68 66 67 66 66 65 64 64 64 63 62 62 62 62 60 63 51 54 59 62 62 60 60 60 59 59 57 54 54 55 60 59 58 58 57 57 57 56 57 56 55 55 53
68 69 69 66 67 65 66 64 63 61 61 61 61 60 58 56 50 50 53 62 62 61 60 60 60 60 59 58 53 53 53 53 58 63 58 58 56 57 57 55 55 56 54
69 70 69 68 67 65 64 62 61 61 60 60 60 60 57 55 48 48 50 62 61 61 62 61 61 60 59 61 60 60 60 60 60 61 60 60 59 59 59 60 59 57 58
70 70 71 69 66 64 63 62 61 61 61 60 60 58 56 54 46 46 57 63 62 60 60 62 61 60 50 50 60 59 58 57 51 50 51 50 49 50 57 62 57 58 55
72 72 72 70 66 64 62 62 62 61 60 61 60 61 54 55 45 45 58 62 59 57 58 58 51 56 48 50 61 60 57 58 58 57 56 52 53 52 54 59 61 58 56
74 73 71 68 65 64 62 62 62 61 60 59 59 59 58 56 52 46 51 60 58 58 59 57 55 48 47 48 53 60 59 60 55 59 58 57 58 57 57 58 59 59 57
73 73 69 68 70 66 63 62 62 60 57 57 59 58 58 57 51 48 49 55 55 61 59 58 52 47 47 48 54 46 47 54 61 60 58 58 57 57 57 58 60 63 60
70 71 69 68 68 65 63 62 61 60 58 57 59 59 57 57 54 47 47 47 52 58 59 51 44 46 46 47 46 47 51 62 61 60 60 60 60 60 59 58 58 59 59
69 69 67 68 63 65 65 64 62 61 59 59 59 58 57 57 56 56 55 53 50 51 48 49 51 49 51 52 52 53 61 61 60 59 58 58 59 58 57 56 54 54 53
70 69 67 68 64 63 59 59 64 63 63 62 62 61 58 57 58 55 56 59 58 55 54 54 55 56 56 57 58 58 60 61 60 58 59 59 59 58 58 56 55 53 52
69 69 68 68 65 62 58 55 44 43 50 52 55 61 62 55 47 47 49 48 47 47 56 55 55 55 58 58 58 59 57 58 62 61 58 58 59 59 56 55 55 53 51
71 69 68 67 67 62 61 59 57 54 44 46 51 51 53 50 47 47 47 46 45 48 57 57 57 58 59 59 58 57 58 59 62 62 60 60 60 60 54 57 56 55 53
71 58 69 70 69 66 64 62 61 58 58 57 48 50 48 46 46 45 44 46 52 52 58 59 59 60 60 59 59 59 59 60 60 62 60 60 60 60 58 58 57 56 54
71 71 72 67 71 68 66 65 64 63 61 58 53 48 42 42 44 43 45 62 60 60 59 60 62 64 63 64 64 64 62 61 61 59 61 62 61 60 60 60 59 48 49
74 62 63 70 69 68 69 67 67 65 63 60 58 55 48 48 53 52 53 61 62 63 64 63 62 62 67 67 66 66 66 61 63 64 64 62 64 63 62 60 59 58 56
76 66 60 69 68 71 67 70 66 68 66 63 63 59 46 60 59 59 59 60 64 65 65 66 66 63 63 65 67 66 66 65 65 65 66 65 61 62 64 61 59 59 56
76 72 71 71 70 70 71 67 68 67 69 67 65 61 42 63 62 61 61 62 64 64 62 66 68 68 66 64 63 66 66 64 63 63 64 65 65 63 62 61 60 57 55
77 75 71 73 71 61 62 71 68 68 67 70 69 65 55 63 63 64 63 63 63 64 65 63 61 64 66 65 63 65 67 67 67 65 64 63 64 64 63 58 59 57 54
78 76 74 73 73 73 66 70 69 59 69 68 69 66 62 62 65 66 66 66 65 66 67 67 68 67 65 64 65 71 71 67 66 67 67 66 63 55 63 62 59 59 54
69 72 74 73 74 71 72 67 69 69 70 71 68 63 65 65 65 66 67 67 67 67 66 68 68 69 68 67 69 66 59 46 64 58 67 64 64 62 64 63 57 54 46
66 69 70 72 74 74 73 70 70 70 71 72 70 66 65 66 67 68 68 68 68 69 69 69 69 69 69 69 69 61 46 44 50 45 67 68 65 64 63 60 58 52 46

GFSGL_sfc_temp_042.txt.gz
Temp
64 63 62 63 64 62 62 62 62 62 62 62 63 63 63 63 62 61 61 61 61 60 60 60 60 59 60 60 59 59 58 58 56 58 61 61 60 60 59 59 59 59 59
64 64 63 63 62 62 62 63 62 62 62 64 63 64 63 64 62 62 62 62 61 62 61 61 60 61 59 59 58 57 58 58 61 57 59 59 59 59 59 58 59 59 58
65 63 62 62 62 62 62 62 62 63 63 63 64 63 64 63 63 62 63 62 62 62 62 61 60 61 59 60 58 58 58 60 61 59 58 60 58 59 58 59 58 59 60
66 63 62 61 61 61 62 62 63 64 65 67 65 66 65 64 63 63 63 61 62 63 63 62 61 61 60 60 60 60 60 60 59 58 58 58 58 59 59 58 57 58 56
64 65 61 62 62 62 62 63 63 63 65 67 65 63 61 62 63 62 62 61 61 61 62 62 62 61 60 59 61 60 60 59 58 58 57 57 57 57 56 57 55 55 54
65 65 65 63 63 62 62 62 61 61 61 61 63 60 59 61 50 53 59 60 60 60 60 59 60 58 56 54 55 57 60 59 58 58 57 56 56 56 57 56 55 55 52
65 66 66 64 63 62 62 62 60 59 59 59 58 58 57 55 47 49 52 60 59 59 59 60 61 59 58 56 52 53 53 54 58 61 58 57 56 58 57 56 56 55 54
66 67 66 65 64 62 61 60 59 58 58 58 57 56 56 54 46 48 52 60 59 61 59 61 60 59 59 60 59 59 58 59 60 61 60 59 59 59 59 59 57 55 56
66 66 67 66 63 62 61 59 59 59 58 57 57 55 55 54 46 50 57 61 60 60 61 61 60 59 49 50 60 58 57 56 50 49 50 49 48 49 56 60 57 55 52
67 68 67 66 64 62 60 59 59 59 60 60 58 57 52 57 45 49 57 61 58 58 58 58 51 56 47 49 60 59 57 57 57 57 55 52 53 52 53 60 59 55 52
70 69 67 64 62 62 60 60 59 58 58 59 58 57 55 54 52 47 50 57 57 58 58 57 55 46 46 47 52 60 57 58 54 59 57 57 58 59 57 57 57 57 54
70 69 65 62 67 63 61 59 59 58 56 56 57 55 56 55 48 46 48 51 53 59 58 58 53 44 45 46 52 44 47 54 60 58 57 57 56 54 54 56 57 57 56
68 65 64 64 62 61 61 59 59 56 57 58 59 58 56 55 54 46 46 46 50 57 59 52 44 43 44 46 45 47 51 61 59 57 58 56 55 57 56 56 56 58 56
66 65 64 63 60 61 61 61 59 56 56 58 60 59 56 55 55 55 54 52 48 51 48 51 50 50 50 50 52 55 60 60 59 58 58 57 56 55 54 55 54 53 53
66 65 65 63 62 60 59 59 61 59 59 58 59 59 57 57 56 53 54 56 54 53 52 53 56 57 56 57 58 58 58 58 57 57 57 58 56 57 55 54 53 52 52
66 65 65 63 61 59 56 52 42 45 49 50 51 56 59 53 44 44 46 46 43 45 54 53 56 57 57 57 58 58 57 56 58 58 57 58 58 57 56 54 53 52 51
67 65 64 63 61 57 56 57 56 50 44 44 46 47 50 49 43 45 44 43 42 47 54 54 55 57 58 60 60 58 57 58 58 59 58 56 57 58 52 56 56 54 52
68 56 65 65 63 60 58 57 57 57 58 56 46 45 44 43 44 44 42 45 52 51 55 55 56 56 57 57 58 57 56 57 58 59 58 58 58 58 55 56 56 55 55
68 67 67 66 65 61 61 58 57 57 61 58 52 47 42 40 41 41 42 59 57 56 55 56 57 58 59 60 60 60 59 58 59 59 59 58 58 58 57 58 57 46 48
70 60 61 67 65 63 62 61 58 57 58 59 59 59 47 48 52 51 50 59 59 59 59 59 58 59 59 59 60 61 60 56 56 58 60 60 59 59 59 58 57 56 52
71 64 56 66 66 65 65 63 62 61 60 58 60 55 44 59 58 58 57 57 60 61 61 61 61 60 61 63 62 61 61 61 61 61 61 61 60 59 60 60 59 57 57
72 69 67 68 67 67 66 67 65 64 63 62 60 55 39 60 61 60 60 61 62 63 64 63 63 63 63 63 63 63 63 63 63 62 62 63 61 61 61 59 59 57 56
71 70 69 69 68 58 59 66 66 65 65 64 63 61 50 57 61 61 61 62 62 62 62 61 64 65 65 63 65 65 64 65 66 65 63 63 63 62 61 59 60 58 55
70 69 70 70 68 65 67 65 65 56 66 66 64 63 57 58 62 62 62 63 63 63 63 64 64 63 65 64 63 64 66 67 67 65 65 64 63 56 62 61 60 60 58
64 63 64 62 63 62 61 62 64 65 65 66 67 65 62 61 63 64 63 63 63 63 63 63 65 65 64 64 66 63 58 45 60 56 63 65 63 61 61 62 60 55 48
64 65 62 61 61 62 64 63 64 65 67 68 67 66 65 64 63 63 64 64 64 64 64 64 65 64 65 66 65 57 45 44 48 42 60 62 61 62 61 60 58 57 51

GFSGL_sfc_temp_045.txt.gz
Temp
62 61 60 61 61 61 61 61 61 61 61 61 61 61 61 61 60 59 59 60 59 59 59 59 59 59 60 59 58 57 56 58 58 58 60 60 59 58 59 61 61 60 59
62 61 60 60 60 60 61 61 60 61 61 62 62 62 62 62 61 60 60 60 60 59 59 60 61 60 59 59 58 56 56 57 60 57 59 58 57 57 57 58 59 60 59
62 61 60 60 60 60 61 61 61 60 61 62 62 62 62 62 61 61 61 61 61 62 61 61 61 59 58 58 56 57 58 58 60 58 57 58 58 58 57 57 56 56 58
62 60 60 59 60 60 61 61 61 62 61 61 61 63 62 62 62 62 61 60 62 62 62 61 61 60 59 59 58 59 59 59 59 58 57 57 57 57 57 56 55 56 56
62 60 60 60 61 61 61 61 61 62 63 66 64 63 61 61 62 61 60 60 60 61 61 61 61 60 59 59 60 60 59 58 58 57 56 56 56 56 55 57 55 55 54
62 61 61 61 61 60 61 61 60 60 62 62 62 59 58 59 49 53 58 60 59 60 59 60 60 58 56 54 56 57 59 59 58 59 57 56 56 56 56 55 54 54 51
62 63 64 62 61 60 61 60 59 59 59 58 58 57 56 55 46 48 52 59 58 60 59 60 60 59 57 58 53 54 54 54 58 62 58 57 56 57 57 56 56 55 54
62 64 63 63 61 60 60 59 57 57 58 56 56 56 55 54 46 47 51 59 58 59 60 60 59 58 58 58 59 58 59 60 59 61 60 59 59 59 59 58 55 53 53
63 63 64 63 61 60 59 58 57 56 57 56 55 55 55 54 46 47 55 60 60 60 61 60 59 58 48 49 58 56 56 55 51 50 50 48 47 49 54 57 54 53 51
64 64 64 63 61 60 59 58 57 58 59 57 56 55 52 55 46 48 56 60 59 58 59 57 52 55 46 49 59 58 55 55 55 55 54 52 53 52 52 58 58 54 51
66 65 63 62 61 60 59 58 57 59 60 58 56 54 55 55 53 46 50 57 58 58 57 57 55 45 45 46 52 59 56 57 54 58 57 56 57 59 57 57 58 57 52
65 65 62 61 64 61 59 57 57 57 56 55 56 53 57 57 47 46 46 50 52 58 58 57 52 44 44 45 51 45 47 54 59 57 57 56 57 56 56 55 55 55 54
64 62 60 61 61 60 58 59 59 56 58 57 57 57 56 57 55 45 43 45 49 57 58 52 43 43 43 45 44 45 50 59 59 57 57 57 57 55 53 54 54 56 55
62 60 61 60 59 59 59 61 60 58 58 60 58 56 57 56 56 55 53 52 48 51 49 51 49 49 49 50 51 55 58 58 57 57 56 54 53 53 53 53 53 52 53
62 62 61 60 59 58 59 59 59 57 59 59 61 60 57 55 57 52 52 54 55 52 53 55 57 56 55 56 58 57 57 57 57 55 56 54 54 53 53 53 53 51 51
61 62 61 59 59 58 57 55 41 45 48 48 48 54 57 50 44 43 43 43 43 44 55 56 56 57 56 57 57 58 57 54 56 56 56 59 58 56 54 52 52 51 50
63 62 61 60 59 57 55 56 54 49 43 43 43 46 48 47 41 42 41 40 41 46 53 56 57 57 57 58 59 59 58 57 56 57 56 57 55 55 53 53 53 52 51
63 53 62 61 60 58 57 56 56 54 54 54 43 45 42 42 41 40 40 44 51 50 53 55 58 59 59 59 60 59 59 55 57 57 56 56 55 56 54 55 55 55 54
63 62 64 62 61 58 57 55 56 56 57 55 50 46 41 39 39 38 41 55 54 53 53 53 56 58 60 61 61 60 57 57 57 57 57 56 56 56 56 56 56 44 47
64 56 59 62 58 58 57 55 55 55 56 55 54 54 48 50 53 52 51 54 55 54 54 54 55 56 57 58 57 57 56 54 55 57 57 57 57 57 57 56 55 53 51
66 60 53 62 61 61 59 58 57 55 55 55 57 53 42 56 55 54 54 54 56 57 57 56 56 56 56 57 56 56 56 57 56 56 55 55 56 55 57 57 56 55 55
66 63 62 64 63 62 61 61 58 58 57 56 56 52 37 55 57 57 57 57 58 59 60 59 59 59 59 59 59 58 58 58 58 57 57 57 57 57 57 56 56 55 54
63 64 63 62 63 54 56 61 60 59 59 59 58 55 48 54 58 58 59 60 59 60 60 60 61 61 61 62 62 62 61 61 62 61 60 60 59 59 59 57 57 56 54
63 62 63 63 61 59 59 61 61 53 61 61 60 59 55 56 59 60 61 61 61 61 61 60 62 63 62 62 63 64 65 65 64 63 62 61 61 57 60 59 59 58 57
62 62 61 59 59 58 58 58 59 60 62 63 62 61 60 59 59 61 62 62 61 61 61 62 62 62 61 62 63 62 57 45 58 55 63 62 61 60 60 60 59 57 55
58 60 59 59 58 58 58 57 57 58 60 63 63 62 62 60 61 61 62 62 61 61 62 62 62 62 63 63 62 57 46 44 48 43 60 61 61 61 61 59 58 57 54

GFSGL_sfc_temp_048.txt.gz
Temp
62 61 61 61 62 62 62 62 62 62 62 62 63 62 63 63 62 61 62 63 62 61 62 61 61 62 61 61 59 60 60 62 58 59 60 59 58 59 61 62 63 62 60
62 61 61 61 61 61 61 62 62 62 63 63 63 63 64 64 63 63 62 63 62 62 61 61 61 61 61 61 60 60 60 62 61 56 58 57 57 58 59 59 60 60 60
62 61 60 60 60 61 62 61 62 62 62 63 63 64 63 64 63 63 63 63 63 62 61 61 62 60 59 59 60 60 61 61 63 58 56 57 57 57 56 57 56 57 59
62 61 60 60 61 61 62 61 62 63 63 63 64 64 64 64 64 64 63 63 63 62 62 61 61 60 60 59 59 60 61 60 60 58 56 56 56 56 56 55 55 57 56
62 61 61 61 61 62 62 62 63 63 64 64 64 65 63 63 63 63 63 62 63 61 61 61 61 60 59 59 60 60 61 60 58 57 56 55 55 54 54 55 54 54 55
61 61 61 61 61 61 61 62 62 62 63 64 62 62 61 61 47 51 59 62 62 61 60 60 60 58 56 55 56 56 60 61 59 57 56 55 55 56 56 55 54 53 50
62 63 63 62 62 61 62 61 61 60 60 61 61 60 60 58 46 47 52 62 61 61 60 60 60 59 58 61 53 54 53 54 58 61 59 57 56 57 57 55 56 56 53
63 63 63 63 62 61 61 60 59 59 59 58 59 59 59 56 47 47 50 61 61 61 62 60 59 58 58 60 59 59 61 62 61 63 62 60 60 60 60 59 55 53 53
63 63 64 64 62 61 60 59 58 58 58 58 58 58 59 58 46 45 55 62 61 61 61 60 59 58 48 49 59 58 57 55 50 50 50 49 47 49 54 57 54 55 52
63 64 65 64 62 61 60 59 59 60 59 58 57 58 52 59 45 47 56 61 59 59 58 57 50 54 45 48 58 58 55 55 56 56 54 51 52 51 52 59 59 54 53
66 65 64 63 62 61 60 60 59 60 59 57 57 57 58 56 52 47 50 60 59 58 58 57 54 45 45 46 51 58 55 57 54 58 57 56 58 58 57 58 58 56 59
65 65 63 62 64 62 60 59 59 60 59 57 56 56 59 57 48 46 46 51 53 60 58 57 51 43 44 45 51 45 47 53 59 57 56 56 56 56 57 58 59 60 60
64 63 62 62 61 61 59 60 59 59 58 58 58 58 58 57 56 44 43 44 48 58 59 51 42 42 43 46 45 46 50 59 58 57 57 58 59 59 58 57 59 59 59
62 61 61 61 59 60 61 62 61 59 59 59 58 58 58 57 57 56 55 54 48 50 48 50 49 49 49 50 53 56 61 62 61 60 60 58 57 58 58 60 59 59 60
62 61 61 60 60 59 61 59 61 61 59 61 60 60 59 57 58 53 53 57 57 52 54 56 56 56 55 57 59 59 60 61 61 59 59 58 58 59 59 59 60 59 60
61 62 61 61 60 60 58 56 43 45 48 48 47 56 60 50 45 44 43 43 43 46 57 57 56 56 56 57 58 58 59 57 60 61 60 60 60 59 59 58 59 60 60
62 61 61 60 60 58 57 58 58 52 43 43 42 44 48 47 41 41 40 40 40 48 58 57 57 57 58 59 60 60 60 61 61 62 61 61 61 60 54 59 60 61 60
63 51 63 63 62 60 59 59 60 59 59 58 44 46 41 40 40 39 40 44 54 54 59 58 58 58 59 60 61 61 61 59 61 61 61 60 59 60 58 60 61 61 60
62 62 64 63 62 60 60 59 60 60 60 58 54 46 40 38 38 38 41 58 57 57 58 59 61 60 61 62 62 64 61 59 60 61 61 61 61 62 61 62 62 47 51
63 54 57 63 60 60 60 60 59 59 59 59 58 56 49 49 52 51 51 58 59 60 60 60 61 63 63 64 64 63 60 56 58 61 62 62 62 63 62 62 63 62 56
64 60 51 62 62 62 61 61 61 60 60 60 61 55 44 58 57 57 55 56 60 61 61 61 61 61 62 63 61 60 60 60 61 62 63 63 63 62 63 63 64 63 63
65 62 62 63 63 62 62 62 61 61 61 61 61 53 38 59 60 59 58 58 60 63 64 63 63 63 63 63 63 62 62 63 63 63 63 63 63 63 64 63 63 62 62
64 63 64 63 63 53 58 62 62 62 62 62 62 57 49 56 61 61 61 62 62 62 63 64 64 64 65 65 65 65 64 65 65 65 64 64 64 64 64 63 62 62 62
62 63 63 64 63 62 62 62 62 53 63 63 62 61 59 59 61 62 63 64 63 64 64 64 65 66 66 65 66 67 67 68 68 67 67 66 65 61 64 64 64 64 63
61 60 59 59 60 61 62 63 63 63 63 63 63 63 63 62 62 63 65 65 64 64 64 65 65 66 65 66 67 67 60 45 62 57 68 67 66 65 65 65 65 63 62
56 56 56 56 57 58 58 59 59 61 62 63 63 63 64 63 63 63 64 65 65 65 65 66 66 66 66 67 67 58 45 43 49 43 65 67 65 65 66 65 65 63 63

GFSGL_sfc_temp_051.txt.gz
Temp
74 74 73 74 74 74 73 73 72 72 73 73 72 72 72 72 72 71 71 71 69 70 69 69 69 69 71 70 65 69 70 73 65 59 62 60 60 62 64 65 64 64 62
75 75 74 74 74 73 73 72 73 72 73 73 73 73 73 73 72 72 71 71 71 69 68 68 64 67 68 67 69 63 71 71 68 59 58 57 59 60 61 61 62 62 62
75 75 73 72 72 72 72 72 73 73 73 74 73 73 73 73 73 72 73 71 70 65 65 61 62 65 64 67 65 69 71 69 70 65 57 58 57 58 57 59 59 59 59
75 75 73 72 72 72 72 72 73 73 73 74 74 74 74 74 73 73 72 71 70 66 63 65 63 62 64 64 67 69 66 65 66 60 57 56 56 57 57 56 55 57 57
75 75 73 72 73 73 72 72 72 72 74 75 74 74 73 73 74 72 71 70 69 64 62 62 62 61 61 62 65 66 65 64 62 57 56 55 54 55 55 56 55 55 55
75 75 73 73 72 72 71 71 71 72 73 73 73 73 71 73 48 51 63 70 69 65 62 62 61 59 58 55 57 58 64 64 60 57 57 55 55 55 56 55 54 52 50
75 74 73 73 72 71 72 71 71 70 70 70 68 71 70 69 47 48 52 70 69 67 62 61 60 61 62 61 54 54 54 54 60 63 59 59 56 57 59 55 55 55 55
75 75 74 74 72 72 71 71 69 69 69 69 70 70 70 65 46 47 50 69 66 65 63 61 59 59 64 63 65 65 65 66 66 70 66 64 65 65 62 60 56 55 55
75 75 75 74 72 72 71 69 69 69 68 67 69 68 69 66 46 46 58 66 64 63 63 62 60 59 49 49 64 63 61 59 51 51 52 50 48 49 58 58 55 56 53
76 76 76 75 73 72 70 68 68 69 68 67 67 69 55 68 46 46 57 63 61 60 59 59 50 56 45 48 62 63 58 57 59 59 57 52 57 54 52 60 63 57 56
78 77 75 75 73 72 70 69 68 67 64 65 67 67 65 64 55 47 51 63 61 60 59 59 58 44 44 47 53 63 58 61 55 61 59 58 59 58 59 59 60 69 66
77 76 75 73 74 72 69 69 69 67 63 60 66 65 62 60 49 46 47 52 55 62 59 59 53 43 44 45 52 45 47 53 61 58 56 56 56 57 58 59 62 66 69
76 75 73 73 73 72 69 66 64 64 62 61 66 67 63 60 59 44 44 46 50 60 61 51 42 42 43 45 44 46 50 60 60 57 57 59 60 62 61 63 66 68 66
75 73 73 72 71 71 70 68 67 61 62 64 64 64 66 62 59 61 63 59 48 51 48 51 49 49 49 50 52 55 60 60 61 60 61 61 64 65 64 66 66 65 64
74 73 73 73 72 65 66 65 66 64 64 66 64 64 65 61 60 55 57 59 57 53 54 57 57 57 56 57 59 60 63 63 63 64 63 65 66 67 67 69 69 68 68
73 73 74 73 70 65 62 60 43 47 48 48 50 60 68 51 44 45 44 43 44 45 57 56 56 57 58 58 59 59 63 61 65 68 69 70 68 67 68 69 71 69 68
74 74 74 71 71 64 62 64 62 52 42 42 44 46 48 48 42 41 41 41 42 50 59 57 59 60 60 61 63 63 64 69 69 71 71 71 71 70 67 69 69 69 70
75 56 75 76 74 70 68 70 72 68 63 63 45 49 41 40 40 40 41 46 57 57 61 60 59 64 64 65 66 67 68 67 69 71 71 71 71 71 68 69 70 70 71
76 75 77 77 76 71 74 74 74 73 71 67 58 48 41 38 38 39 42 67 63 63 66 63 63 63 64 64 64 69 70 69 70 70 71 71 70 71 70 71 72 51 57
77 61 67 76 75 74 74 74 74 73 71 71 68 64 52 52 57 54 55 65 67 68 70 71 70 66 64 65 67 68 68 66 64 67 71 71 72 72 72 72 73 72 69
79 73 57 77 76 77 76 75 75 74 74 73 73 65 45 68 68 64 62 64 68 72 72 73 73 73 72 71 71 70 67 65 64 67 72 73 73 72 73 73 74 74 73
78 76 75 78 77 76 77 77 76 75 76 75 74 62 39 69 73 70 68 66 68 73 75 74 75 75 74 73 72 69 68 66 68 71 73 74 73 73 73 73 73 73 73
77 76 76 77 77 62 72 77 76 76 76 76 76 69 58 68 74 74 73 73 72 73 75 74 75 76 76 75 75 74 73 73 75 75 74 74 74 74 74 73 73 73 72
73 75 76 76 76 75 75 75 76 61 75 76 75 74 71 72 73 75 75 76 75 75 75 75 75 77 76 76 76 77 77 78 78 78 76 75 75 70 74 74 75 74 73
68 68 70 70 71 73 72 74 74 75 75 76 76 76 77 75 75 75 76 76 75 75 75 75 76 76 75 75 76 77 66 43 66 61 78 75 75 74 75 75 74 74 73
60 59 59 60 64 66 66 67 69 70 70 70 70 71 72 73 74 73 74 74 75 75 75 75 75 74 74 75 75 59 43 40 53 41 69 75 75 74 75 74 73 74 73

GFSGL_sfc_temp_054.txt.gz
Temp
82 82 81 81 81 81 80 80 80 79 79 79 79 78 78 77 77 75 76 76 75 74 75 73 72 72 72 75 73 77 76 71 67 66 66 64 64 69 71 69 70 68 63
82 82 81 81 81 79 79 80 79 78 80 79 79 79 79 79 77 77 76 77 75 74 72 73 73 73 72 72 76 70 74 73 71 63 60 59 60 62 65 65 64 64 63
83 82 80 79 79 78 78 78 79 79 79 80 79 79 79 79 78 78 78 77 76 71 66 65 69 69 70 70 74 73 72 71 72 69 58 58 60 60 60 61 61 60 60
83 82 79 78 78 78 78 78 78 79 79 79 79 80 80 80 80 80 78 76 74 69 63 64 64 63 64 70 72 70 71 69 68 65 58 57 58 58 59 57 56 58 57
82 81 78 79 79 79 78 78 79 78 80 80 80 80 80 80 81 77 76 74 74 67 64 63 63 62 60 63 70 70 70 70 68 61 58 57 55 56 56 57 56 56 56
81 80 80 80 79 78 77 77 77 78 79 80 79 79 77 81 49 53 65 74 73 69 63 63 63 59 59 56 57 60 68 70 63 61 60 59 57 56 57 55 55 54 51
82 81 80 80 79 78 78 78 77 75 76 76 77 77 76 73 49 49 53 74 73 70 63 62 60 63 63 69 54 54 56 55 61 62 62 59 57 59 59 56 57 57 56
82 81 81 81 79 79 78 76 76 74 74 74 74 75 74 69 47 47 50 71 71 69 64 62 60 67 67 63 65 66 68 69 67 71 67 65 63 63 61 58 57 55 56
82 81 82 81 79 78 77 75 74 74 73 74 75 74 73 70 47 47 54 71 70 67 63 61 62 63 51 51 65 65 65 67 53 52 53 51 49 50 58 61 54 58 56
83 83 83 82 80 78 76 75 75 74 72 75 74 74 60 71 47 46 56 71 64 63 61 58 50 58 46 48 65 65 64 64 67 65 60 54 56 54 52 61 64 59 57
85 84 83 81 79 78 75 75 74 72 72 72 71 71 73 69 61 46 49 68 65 64 65 63 61 45 44 47 54 70 65 66 60 67 64 61 61 62 62 62 67 63 60
85 84 81 80 80 78 75 75 73 71 70 69 69 71 71 66 50 48 47 52 56 67 64 67 60 42 43 46 54 45 47 56 66 63 61 59 60 59 60 63 64 65 71
83 81 80 80 80 77 74 71 70 70 70 70 68 68 68 67 65 45 45 47 50 66 67 52 42 42 42 45 44 46 50 64 64 61 59 59 61 61 61 62 69 71 71
81 80 80 79 76 76 77 72 72 71 70 71 69 68 68 66 65 65 63 59 50 58 51 54 50 49 49 49 51 57 65 65 66 60 58 60 61 61 63 64 66 70 71
80 80 79 80 78 77 75 70 72 69 66 70 73 74 69 68 66 57 60 63 62 57 58 60 58 56 55 56 58 60 61 65 63 62 61 62 63 65 65 69 70 72 70
78 80 81 81 78 77 75 70 44 46 45 49 53 61 69 51 45 46 44 44 44 45 60 58 57 57 57 57 58 58 60 60 63 63 65 69 69 69 70 69 72 73 72
79 80 82 78 79 75 75 74 65 52 42 42 45 45 47 48 42 42 41 42 42 49 58 59 58 59 58 59 60 62 63 65 70 71 70 71 71 70 67 71 74 75 75
81 60 82 83 81 77 76 77 73 69 66 66 46 50 43 42 41 41 42 48 57 56 60 65 64 63 62 62 63 67 69 71 72 71 71 69 69 71 71 73 75 74 75
83 83 84 85 83 78 80 80 77 74 74 73 64 52 44 38 39 40 42 71 67 63 65 65 70 69 66 65 68 71 71 73 72 72 71 71 72 76 76 76 77 56 61
84 66 72 85 82 82 82 81 81 80 77 75 73 71 60 55 58 55 63 67 72 69 67 69 69 72 72 72 73 72 73 71 72 70 71 71 72 77 78 77 78 78 76
86 83 65 85 83 84 83 82 82 81 80 79 78 71 49 74 74 70 67 67 76 78 77 73 72 74 75 76 74 71 72 73 75 75 76 77 78 77 78 79 80 79 79
87 84 84 86 85 85 84 84 83 83 82 81 80 65 40 71 80 77 76 75 78 81 82 80 82 80 80 78 78 77 77 76 77 77 77 79 80 79 79 79 79 79 79
87 85 85 86 86 68 81 84 83 83 83 83 82 72 68 77 81 81 79 79 79 80 82 81 82 82 83 82 82 82 81 80 79 79 78 79 80 80 80 78 79 78 78
86 85 85 85 85 84 84 83 84 68 82 84 82 79 77 79 82 82 82 82 82 82 82 82 82 83 83 82 82 83 83 83 83 83 81 80 80 75 79 80 80 79 79
83 83 84 83 81 83 81 83 82 83 82 83 82 82 82 82 82 83 83 83 83 82 82 83 83 82 81 81 82 82 66 44 70 53 82 81 80 79 80 81 80 79 79
69 72 74 77 78 77 77 78 78 79 79 79 78 77 78 78 78 79 80 80 83 83 82 84 81 74 71 58 55 39 35 35 54 38 70 77 77 79 80 79 79 79 79

GFSGL_sfc_temp_057.txt.gz
Temp
84 85 84 84 84 83 83 83 82 82 82 82 82 78 80 79 79 77 77 75 75 73 75 74 73 73 72 71 75 78 72 69 67 66 70 68 69 70 73 73 72 73 66
86 85 83 83 83 81 81 82 82 81 83 83 82 81 81 80 79 75 74 75 75 74 74 73 74 71 70 72 71 71 73 73 66 65 64 63 64 67 70 67 65 68 66
86 84 82 81 81 80 80 81 82 81 82 82 82 81 81 81 75 75 77 75 76 74 73 68 67 71 66 70 74 74 72 71 71 69 61 61 60 62 62 62 62 61 61
86 84 81 80 80 80 81 80 81 82 81 81 81 82 83 82 77 77 78 77 76 73 70 68 65 64 68 68 66 72 71 70 69 68 61 59 59 59 60 57 56 58 58
85 83 80 81 81 81 81 81 81 81 82 83 82 82 83 82 77 76 78 76 74 71 67 65 65 63 61 61 66 70 69 69 69 64 62 59 57 57 56 57 56 56 57
84 82 82 82 82 78 76 78 80 80 81 81 76 77 77 73 50 55 65 74 73 70 66 63 63 60 59 55 56 56 66 72 69 66 64 58 57 57 57 56 56 54 52
83 83 83 82 79 75 76 75 78 78 75 73 74 74 75 74 50 51 53 73 70 70 65 62 61 63 62 70 57 56 56 57 62 69 64 61 57 58 57 56 57 59 55
84 84 84 84 81 79 75 75 77 76 76 75 76 76 75 70 49 48 51 74 72 70 64 62 62 66 68 68 71 69 71 69 67 70 66 64 63 62 59 59 59 57 56
84 84 85 85 82 81 76 76 75 74 73 74 76 75 73 71 48 49 59 71 69 66 64 63 64 66 51 52 68 67 66 67 52 52 53 50 48 49 56 57 55 55 53
86 86 87 86 83 78 74 75 76 75 74 75 73 75 62 71 48 47 57 69 68 63 62 59 51 62 47 48 67 67 64 65 66 62 60 54 56 54 52 59 60 57 56
88 88 86 79 78 75 75 77 75 73 73 72 73 73 72 70 64 47 50 73 69 63 64 65 61 47 45 47 50 68 66 67 59 63 62 59 59 60 60 60 63 62 61
88 87 83 75 77 79 75 73 72 71 71 70 70 69 72 70 54 49 49 51 56 66 68 67 61 43 44 46 52 46 48 59 67 62 59 58 58 58 60 63 63 63 63
86 84 80 76 75 76 75 71 72 73 72 72 68 71 69 72 70 47 47 49 48 66 68 48 42 42 43 47 45 47 51 67 66 61 59 59 61 63 62 62 61 62 67
84 83 80 74 72 75 73 73 72 72 73 72 71 73 69 72 71 70 64 61 52 59 53 57 49 48 48 51 54 57 66 67 64 61 60 62 63 65 63 66 62 63 70
83 82 81 73 77 75 74 71 72 72 68 71 68 71 70 70 66 61 63 65 68 59 59 60 58 56 54 56 59 63 65 64 65 64 63 62 63 64 66 69 70 69 69
81 82 83 82 82 79 75 71 43 45 43 45 47 59 67 51 44 45 46 44 45 46 62 59 56 56 56 57 57 60 62 60 65 65 63 61 61 64 63 67 69 68 68
81 81 83 80 83 80 74 74 69 58 43 42 43 44 50 46 43 42 42 42 43 50 62 59 58 58 58 59 58 59 60 64 64 66 65 66 68 69 67 69 72 71 70
83 62 84 85 84 82 79 75 73 70 69 68 48 50 42 42 41 40 42 48 57 55 65 62 59 59 59 60 61 62 63 64 67 71 70 69 70 70 68 70 70 70 75
84 85 86 87 85 79 80 79 75 74 71 68 66 54 45 39 40 41 43 64 62 60 62 65 65 62 63 64 64 66 70 72 71 72 71 71 73 70 70 72 74 56 62
85 67 72 86 83 83 83 74 74 73 70 74 72 71 60 56 59 60 62 63 69 68 70 71 67 67 65 67 69 68 71 70 71 72 72 74 72 73 74 75 77 78 76
87 85 63 87 85 86 85 73 73 74 77 78 76 71 50 72 70 71 71 70 72 73 72 75 76 73 71 71 72 72 70 73 72 75 74 72 74 75 77 80 79 79 79
88 86 85 88 87 86 85 86 85 84 84 82 80 66 44 70 78 75 75 75 76 72 74 76 78 77 78 76 75 76 76 76 77 77 77 76 75 78 79 79 79 79 79
88 86 85 88 87 70 83 86 86 86 85 84 79 74 72 76 80 81 79 80 81 83 83 80 76 77 78 78 81 80 79 80 81 81 80 79 80 81 81 79 79 79 79
88 86 85 87 88 86 86 85 86 71 85 84 80 78 78 80 84 83 83 83 82 83 84 84 85 86 84 84 84 85 84 83 83 83 81 79 79 74 79 80 80 80 80
89 86 86 86 85 86 85 86 85 86 86 86 83 81 83 84 84 83 84 84 84 84 84 81 79 77 61 59 55 51 39 35 55 44 81 82 81 81 81 82 81 81 80
76 82 84 84 82 80 74 68 69 75 74 72 70 71 71 68 69 70 68 66 65 59 64 62 59 61 58 53 48 36 34 34 42 35 59 77 78 79 80 80 80 80 80

GFSGL_sfc_temp_060.txt.gz
Temp
81 81 80 81 80 79 79 79 77 77 77 77 77 74 73 72 74 72 72 72 71 69 69 68 68 69 67 66 66 65 65 64 60 62 64 65 65 65 66 64 66 64 61
82 81 80 79 78 77 77 77 77 77 78 78 78 75 74 75 74 73 72 72 70 68 69 69 68 69 67 67 65 65 65 64 63 60 62 62 63 65 65 65 65 66 63
83 80 78 77 77 76 76 76 77 77 77 78 78 75 77 76 73 73 73 71 71 69 69 67 66 67 64 64 65 65 65 65 64 60 58 60 60 62 61 62 61 60 60
82 79 76 76 76 76 76 76 76 77 77 77 77 78 78 75 73 73 72 70 70 68 67 65 64 63 63 63 64 65 65 63 63 60 59 58 58 60 59 58 56 58 58
81 78 76 76 77 77 76 76 76 76 77 78 77 77 76 73 75 73 71 70 68 67 65 64 63 62 60 59 62 62 64 63 61 60 58 57 56 57 56 57 56 56 57
78 77 79 78 77 75 75 76 75 76 76 74 75 72 69 69 50 54 67 69 68 66 64 63 62 59 58 55 56 57 60 63 61 62 58 56 56 56 57 56 56 55 52
80 80 79 78 78 76 76 75 74 74 72 72 73 72 68 64 48 51 54 69 67 66 64 61 60 63 60 65 55 55 56 57 62 64 60 59 56 57 57 56 57 57 54
80 80 81 80 77 76 74 73 72 71 70 70 71 71 69 61 48 49 51 70 67 66 63 62 61 63 63 65 64 65 64 64 64 67 62 60 59 59 59 60 59 56 56
81 81 82 80 75 74 72 72 71 69 69 69 70 69 67 62 49 48 55 67 65 63 63 62 62 64 51 51 66 64 62 58 51 50 50 50 48 49 55 58 55 55 53
83 83 84 82 75 72 71 72 70 70 70 71 70 69 61 63 48 48 56 66 63 61 61 58 50 60 46 48 65 64 59 59 59 57 55 52 53 51 52 59 59 56 55
85 85 84 77 73 73 71 71 70 70 70 69 68 67 69 65 57 48 49 65 63 61 63 61 61 46 45 47 51 63 60 62 56 59 58 57 57 58 57 58 59 61 58
86 84 78 75 76 74 71 70 71 69 67 67 66 65 66 65 54 48 48 52 56 63 62 64 57 44 44 47 54 47 49 56 62 58 57 56 57 57 58 59 60 62 62
83 77 76 75 73 72 71 71 70 67 67 66 66 67 66 66 62 47 46 48 51 60 59 47 43 42 43 47 45 48 50 63 61 58 57 57 58 60 60 60 60 61 60
78 75 75 73 71 73 71 69 67 67 66 66 69 66 66 66 65 64 59 56 50 55 52 52 48 49 50 50 52 58 65 64 61 59 58 59 60 60 59 60 60 59 59
76 76 73 73 70 69 64 64 68 59 60 65 67 67 65 63 64 61 61 65 65 56 56 58 56 55 57 59 60 62 64 62 61 60 60 59 60 60 60 62 62 59 59
77 75 74 72 74 72 69 62 43 44 43 42 48 62 56 50 46 46 44 45 46 46 59 56 55 55 56 57 58 60 61 59 62 61 60 61 61 61 61 62 63 61 61
77 76 72 73 71 72 72 69 63 52 43 42 42 44 49 45 43 43 42 42 43 48 59 57 56 56 57 58 59 60 60 62 63 63 62 62 62 63 58 61 64 63 63
80 63 79 74 78 73 71 71 69 67 65 62 45 48 42 41 41 41 42 49 58 58 61 59 57 58 58 58 59 60 60 62 63 63 61 61 62 61 62 64 65 64 64
81 81 79 77 80 71 73 72 71 70 68 64 57 49 43 39 40 42 43 63 60 60 63 60 60 59 60 61 60 63 62 63 63 64 64 65 65 65 65 66 66 51 55
81 67 66 78 78 77 74 71 74 72 69 67 66 61 55 53 56 55 60 64 64 65 65 64 61 62 62 63 62 64 65 62 65 66 65 66 66 67 67 67 68 67 66
83 80 58 80 81 80 76 76 75 74 73 71 70 62 47 65 63 64 61 63 66 67 69 65 66 65 65 66 67 67 65 67 67 67 67 67 67 66 67 69 69 70 70
83 82 82 80 83 81 76 76 76 76 76 74 71 58 43 65 70 70 69 70 70 70 73 71 68 70 70 69 69 69 69 69 69 69 68 69 69 69 69 70 71 69 68
83 83 82 77 83 65 72 76 78 76 75 74 71 66 63 68 70 72 73 74 69 70 71 69 71 73 73 72 72 72 72 71 71 72 71 71 71 70 71 70 71 71 71
85 83 82 76 81 82 82 80 81 66 77 75 72 71 71 70 69 71 73 71 74 65 63 69 55 56 54 53 54 53 46 45 57 66 73 71 70 66 70 70 70 71 70
80 80 80 74 79 81 80 81 81 80 77 76 75 75 65 65 65 66 61 62 61 57 54 55 56 52 48 46 46 44 37 34 44 39 65 68 71 71 72 72 71 71 71
68 79 75 69 69 71 72 71 70 69 68 68 67 65 65 60 58 62 60 60 57 56 53 49 48 48 46 44 40 35 35 36 42 36 57 69 69 69 68 67 68 68 69

GFSGL_sfc_temp_063.txt.gz
Temp
71 71 71 71 72 74 72 72 72 72 72 71 70 69 69 70 67 65 65 65 64 63 64 63 63 63 62 62 61 61 60 59 56 59 60 61 63 63 63 62 62 61 61
74 72 72 71 72 70 69 68 70 70 72 71 70 69 72 71 69 66 66 66 64 63 63 63 63 64 62 62 60 61 60 61 58 56 60 59 60 63 63 63 63 63 62
74 71 71 74 73 70 67 67 69 69 69 70 69 69 71 71 67 67 67 66 65 64 64 63 62 61 62 63 61 61 61 62 59 58 57 59 60 62 60 60 60 60 61
71 70 70 72 71 68 67 67 68 70 69 68 68 71 71 70 70 68 68 65 64 62 62 61 61 61 60 62 63 60 61 60 58 57 58 57 59 59 59 58 57 58 58
73 73 72 71 69 70 68 67 68 68 69 70 70 70 70 70 72 70 68 64 61 61 61 60 60 61 59 58 61 61 60 59 57 56 57 57 57 57 57 57 56 56 57
73 73 73 72 70 68 67 67 67 67 68 68 66 68 66 66 52 57 64 62 62 60 59 59 60 59 58 56 56 57 59 59 57 57 56 57 56 56 57 57 56 56 53
73 73 73 71 70 67 68 67 66 65 69 69 66 64 61 57 48 51 57 63 61 60 59 59 60 61 59 60 54 55 56 56 59 59 59 58 56 57 57 56 57 56 54
74 74 73 72 69 67 68 67 67 64 66 65 64 62 59 56 48 49 52 63 61 61 60 60 60 60 60 60 59 60 60 59 59 61 59 59 59 59 59 59 58 55 56
73 73 73 72 68 66 67 68 65 63 62 62 63 61 58 54 48 49 55 61 60 61 60 60 60 61 52 50 61 57 55 54 50 50 50 48 48 50 55 59 56 55 53
74 75 74 72 69 66 64 64 63 63 63 63 63 62 56 55 48 48 56 61 59 59 58 57 50 55 46 51 60 57 55 54 55 55 54 50 53 51 52 59 59 55 54
77 76 74 73 71 68 66 64 63 63 63 62 62 61 59 55 52 48 49 59 58 58 57 57 54 44 45 49 52 59 56 57 53 57 56 56 57 57 57 58 58 59 57
75 75 73 72 73 70 66 63 63 62 61 60 60 60 59 56 50 46 48 54 56 59 58 57 52 43 45 46 53 45 48 54 57 57 55 55 56 56 57 58 58 61 61
72 71 69 69 69 66 64 62 62 61 61 59 59 59 59 58 54 45 46 50 51 56 55 51 43 43 44 47 45 46 50 59 57 56 55 55 57 58 58 58 58 59 59
69 68 68 67 65 66 64 62 62 61 61 60 59 61 60 57 55 53 52 51 48 51 48 50 49 49 49 51 51 54 59 58 58 57 56 57 58 58 58 59 57 56 57
69 68 67 66 64 56 52 53 59 54 56 61 59 62 61 60 59 54 55 58 55 52 54 56 57 57 57 57 59 60 60 60 59 58 57 57 57 57 55 58 58 56 55
68 67 66 65 63 59 56 54 42 42 41 48 51 56 57 51 47 46 45 46 45 45 56 55 55 57 57 57 58 58 59 57 59 59 58 58 55 54 55 57 58 55 55
68 67 66 66 63 61 59 57 54 50 43 41 42 46 49 45 43 43 44 43 43 49 56 55 55 56 57 57 57 59 59 59 60 60 60 59 59 56 54 59 59 57 57
70 58 68 66 67 66 63 60 58 57 55 52 44 44 41 41 41 41 42 47 54 54 57 56 56 57 57 58 58 59 59 59 60 61 60 60 59 58 59 59 59 58 58
70 69 70 68 68 66 68 64 64 62 56 53 52 47 41 40 40 42 44 59 57 56 57 57 58 58 59 59 59 60 59 61 61 60 59 58 59 59 60 58 58 48 51
71 59 66 72 67 67 67 64 63 63 57 55 55 53 50 52 55 55 56 59 59 58 59 58 59 59 57 60 59 60 59 57 57 57 58 58 58 60 58 59 58 58 57
69 66 56 71 68 68 66 65 64 62 60 59 55 55 45 59 57 57 58 59 60 61 62 61 61 61 61 62 61 58 58 58 58 60 60 62 60 61 62 62 60 60 59
70 73 75 73 71 71 68 67 66 64 63 61 56 52 39 59 58 61 61 62 63 63 63 64 62 60 60 60 60 62 61 59 61 63 63 64 63 61 62 60 60 61 65
71 74 71 69 71 59 65 68 67 66 66 62 59 56 52 56 60 61 64 62 63 63 59 59 63 61 60 55 54 55 59 57 59 61 63 64 65 63 64 63 63 62 60
72 70 72 71 72 69 70 68 70 58 66 63 61 59 57 59 63 61 55 57 55 54 52 50 49 49 48 49 49 48 45 46 52 58 62 65 65 60 66 66 66 66 66
73 68 68 68 71 71 67 70 70 70 68 64 61 61 62 61 60 56 54 51 50 49 48 47 46 45 44 43 44 43 37 34 45 39 62 65 63 64 64 64 64 63 62
63 62 62 63 67 67 64 64 65 64 62 59 56 54 55 56 54 53 52 50 46 45 44 44 43 43 42 41 40 36 36 37 45 40 55 55 56 54 57 57 57 57 58